Time,TemperatureF,DewpointF,PressureIn,WindDirection,WindDirectionDegrees,WindSpeedMPH,WindSpeedGustMPH,Humidity,HourlyPrecipIn,Conditions,Clouds,dailyrainin,SolarRadiationWatts/m^2,SoftwareType,DateUTC
2013-02-16 01:38:00,9.9,5.5,30.12,North,360,1.0,17.0,82,0.00,,,0.00,0,Wunderground v.1.15,2013-02-16 06:38:00,
2013-02-16 01:39:00,9.9,5.5,30.12,North,360,1.0,17.0,82,0.00,,,0.00,0,Wunderground v.1.15,2013-02-16 06:39:00,
2013-02-16 01:41:00,9.9,5.5,30.12,North,360,1.0,1.0,82,0.00,,,0.00,0,Wunderground v.1.15,2013-02-16 06:41:00,
2013-02-16 01:44:00,9.9,5.2,30.12,North,5,1.0,3.0,81,0.00,,,0.00,0,Wunderground v.1.15,2013-02-16 06:44:00,
2013-02-16 01:45:00,9.9,5.2,30.12,NNW,345,1.0,3.0,81,0.00,,,0.00,0,Wunderground v.1.15,2013-02-16 06:45:00,
2013-02-16 01:47:00,9.9,5.2,30.12,North,355,1.0,3.0,81,0.00,,,0.00,0,Wunderground v.1.15,2013-02-16 06:47:00,
2013-02-16 01:48:00,9.9,5.2,30.12,North,9,1.0,3.0,81,0.00,,,0.00,0,Wunderground v.1.15,2013-02-16 06:48:00,
2013-02-16 01:52:00,9.9,5.2,30.12,NNW,334,1.0,3.0,81,0.00,,,0.00,0,Wunderground v.1.15,2013-02-16 06:52:00,
2013-02-16 01:54:00,9.9,5.0,30.12,NW,315,1.0,3.0,80,0.00,,,0.00,0,Wunderground v.1.15,2013-02-16 06:54:00,
2013-02-16 01:56:00,9.9,5.0,30.12,NW,316,1.0,3.0,80,0.00,,,0.00,0,Wunderground v.1.15,2013-02-16 06:56:00,
2013-02-16 01:58:00,9.9,5.0,30.12,NW,318,1.0,3.0,80,0.00,,,0.00,0,Wunderground v.1.15,2013-02-16 06:58:00,
2013-02-16 02:00:00,9.9,5.0,30.12,NW,318,1.0,1.0,80,0.00,,,0.00,0,Wunderground v.1.15,2013-02-16 07:00:00,
2013-02-16 02:01:00,9.9,5.0,30.13,NW,313,1.0,1.0,80,0.00,,,0.00,0,Wunderground v.1.15,2013-02-16 07:01:00,
2013-02-16 02:07:00,9.8,4.9,30.12,NW,323,1.0,4.0,80,0.00,,,0.00,0,Wunderground v.1.15,2013-02-16 07:07:00,
2013-02-16 02:13:00,9.8,4.9,30.13,North,5,1.0,2.0,80,0.00,,,0.00,0,Wunderground v.1.15,2013-02-16 07:13:00,
2013-02-16 02:14:00,9.7,4.8,30.12,North,5,2.0,2.0,80,0.00,,,0.00,0,Wunderground v.1.15,2013-02-16 07:14:00,
2013-02-16 02:16:00,9.8,4.9,30.12,NNW,338,1.0,2.0,80,0.00,,,0.00,0,Wunderground v.1.15,2013-02-16 07:16:00,
2013-02-16 02:20:00,9.7,4.8,30.12,NNW,335,1.0,1.0,80,0.00,,,0.00,0,Wunderground v.1.15,2013-02-16 07:20:00,
2013-02-16 02:23:00,9.7,4.8,30.12,NNW,346,1.0,1.0,80,0.00,,,0.00,0,Wunderground v.1.15,2013-02-16 07:23:00,
2013-02-16 02:24:00,9.7,4.8,30.12,NNW,346,1.0,1.0,80,0.00,,,0.00,0,Wunderground v.1.15,2013-02-16 07:24:00,
2013-02-16 02:26:00,9.7,4.8,30.12,NNW,345,1.0,1.0,80,0.00,,,0.00,0,Wunderground v.1.15,2013-02-16 07:26:00,
2013-02-16 02:32:00,9.6,4.7,30.13,North,351,1.0,4.0,80,0.00,,,0.00,0,Wunderground v.1.15,2013-02-16 07:32:00,
2013-02-16 02:33:00,9.6,4.7,30.13,NW,311,1.0,4.0,80,0.00,,,0.00,0,Wunderground v.1.15,2013-02-16 07:33:00,
2013-02-16 02:34:00,9.6,4.7,30.12,NNW,327,1.0,4.0,80,0.00,,,0.00,0,Wunderground v.1.15,2013-02-16 07:34:00,
2013-02-16 02:35:00,9.6,4.9,30.12,NW,322,1.0,4.0,81,0.00,,,0.00,0,Wunderground v.1.15,2013-02-16 07:35:00,
2013-02-16 02:38:00,9.6,4.7,30.12,North,9,1.0,4.0,80,0.00,,,0.00,0,Wunderground v.1.15,2013-02-16 07:38:00,
2013-02-16 02:39:00,9.5,4.6,30.12,North,9,1.0,4.0,80,0.00,,,0.00,0,Wunderground v.1.15,2013-02-16 07:39:00,
2013-02-16 02:40:00,9.5,4.6,30.12,North,9,1.0,1.0,80,0.00,,,0.00,0,Wunderground v.1.15,2013-02-16 07:40:00,
2013-02-16 02:43:00,9.5,4.8,30.12,North,9,1.0,4.0,81,0.00,,,0.00,0,Wunderground v.1.15,2013-02-16 07:43:00,
2013-02-16 02:47:00,9.5,4.8,30.12,North,5,0.0,4.0,81,0.00,,,0.00,0,Wunderground v.1.15,2013-02-16 07:47:00,
2013-02-16 02:48:00,9.5,4.8,30.11,North,5,0.0,4.0,81,0.00,,,0.00,0,Wunderground v.1.15,2013-02-16 07:48:00,
2013-02-16 02:51:00,9.5,4.8,30.11,NW,315,0.0,4.0,81,0.00,,,0.00,0,Wunderground v.1.15,2013-02-16 07:51:00,
2013-02-16 02:54:00,9.5,4.8,30.12,NNW,329,0.0,4.0,81,0.00,,,0.00,0,Wunderground v.1.15,2013-02-16 07:54:00,
2013-02-16 02:55:00,9.4,4.7,30.11,NW,319,0.0,4.0,81,0.00,,,0.00,0,Wunderground v.1.15,2013-02-16 07:55:00,
2013-02-16 02:57:00,9.4,4.7,30.11,NW,323,0.0,4.0,81,0.00,,,0.00,0,Wunderground v.1.15,2013-02-16 07:57:00,
2013-02-16 03:00:00,9.3,4.6,30.11,NNW,348,0.0,4.0,81,0.00,,,0.00,0,Wunderground v.1.15,2013-02-16 08:00:00,
2013-02-16 03:01:00,9.3,4.6,30.11,NNW,333,1.0,4.0,81,0.00,,,0.00,0,Wunderground v.1.15,2013-02-16 08:01:00,
2013-02-16 03:02:00,9.3,4.6,30.11,NNW,334,1.0,4.0,81,0.00,,,0.00,0,Wunderground v.1.15,2013-02-16 08:02:00,
2013-02-16 03:03:00,9.2,4.6,30.11,NNW,343,1.0,4.0,81,0.00,,,0.00,0,Wunderground v.1.15,2013-02-16 08:03:00,
2013-02-16 03:08:00,9.1,4.5,30.11,NW,304,1.0,4.0,81,0.00,,,0.00,0,Wunderground v.1.15,2013-02-16 08:08:00,
2013-02-16 03:09:00,9.1,4.5,30.11,North,5,1.0,4.0,81,0.00,,,0.00,0,Wunderground v.1.15,2013-02-16 08:09:00,
2013-02-16 03:13:00,9.0,4.4,30.11,NW,315,1.0,4.0,81,0.00,,,0.00,0,Wunderground v.1.15,2013-02-16 08:13:00,
2013-02-16 03:14:00,9.0,4.4,30.11,NNW,346,1.0,4.0,81,0.00,,,0.00,0,Wunderground v.1.15,2013-02-16 08:14:00,
2013-02-16 03:16:00,8.9,4.3,30.11,North,355,1.0,4.0,81,0.00,,,0.00,0,Wunderground v.1.15,2013-02-16 08:16:00,
2013-02-16 03:19:00,8.8,4.2,30.11,North,355,1.0,4.0,81,0.00,,,0.00,0,Wunderground v.1.15,2013-02-16 08:19:00,
2013-02-16 03:20:00,8.8,4.2,30.12,NNW,329,1.0,4.0,81,0.00,,,0.00,0,Wunderground v.1.15,2013-02-16 08:20:00,
2013-02-16 03:21:00,8.8,4.2,30.11,North,355,1.0,4.0,81,0.00,,,0.00,0,Wunderground v.1.15,2013-02-16 08:21:00,
2013-02-16 03:24:00,8.7,4.1,30.11,North,5,1.0,4.0,81,0.00,,,0.00,0,Wunderground v.1.15,2013-02-16 08:24:00,
2013-02-16 03:27:00,8.6,4.0,30.11,NNW,346,1.0,4.0,81,0.00,,,0.00,0,Wunderground v.1.15,2013-02-16 08:27:00,
2013-02-16 03:28:00,8.6,4.0,30.11,NNW,333,1.0,4.0,81,0.00,,,0.00,0,Wunderground v.1.15,2013-02-16 08:28:00,
2013-02-16 03:29:00,8.6,4.0,30.11,NNW,337,1.0,4.0,81,0.00,,,0.00,0,Wunderground v.1.15,2013-02-16 08:29:00,
2013-02-16 03:30:00,8.6,4.0,30.11,NNW,333,1.0,4.0,81,0.00,,,0.00,0,Wunderground v.1.15,2013-02-16 08:30:00,
2013-02-16 03:33:00,8.5,3.9,30.11,NNW,348,1.0,4.0,81,0.00,,,0.00,0,Wunderground v.1.15,2013-02-16 08:33:00,
2013-02-16 03:36:00,8.5,3.9,30.11,NNE,17,0.0,4.0,81,0.00,,,0.00,0,Wunderground v.1.15,2013-02-16 08:36:00,
2013-02-16 03:39:00,8.4,3.8,30.11,NNE,17,0.0,4.0,81,0.00,,,0.00,0,Wunderground v.1.15,2013-02-16 08:39:00,
2013-02-16 03:40:00,8.4,3.8,30.11,NNE,17,0.0,4.0,81,0.00,,,0.00,0,Wunderground v.1.15,2013-02-16 08:40:00,
2013-02-16 03:41:00,8.4,3.8,30.11,North,355,0.0,4.0,81,0.00,,,0.00,0,Wunderground v.1.15,2013-02-16 08:41:00,
2013-02-16 03:43:00,8.3,3.7,30.11,North,5,0.0,4.0,81,0.00,,,0.00,0,Wunderground v.1.15,2013-02-16 08:43:00,
2013-02-16 03:47:00,8.2,3.6,30.11,North,355,0.0,4.0,81,0.00,,,0.00,0,Wunderground v.1.15,2013-02-16 08:47:00,
2013-02-16 03:48:00,8.2,3.6,30.11,North,355,0.0,4.0,81,0.00,,,0.00,0,Wunderground v.1.15,2013-02-16 08:48:00,
2013-02-16 03:49:00,8.2,3.6,30.11,North,355,0.0,4.0,81,0.00,,,0.00,0,Wunderground v.1.15,2013-02-16 08:49:00,
2013-02-16 03:54:00,8.1,3.5,30.10,North,355,0.0,4.0,81,0.00,,,0.00,0,Wunderground v.1.15,2013-02-16 08:54:00,
2013-02-16 03:56:00,8.1,3.5,30.11,North,355,0.0,4.0,81,0.00,,,0.00,0,Wunderground v.1.15,2013-02-16 08:56:00,
2013-02-16 03:57:00,8.0,3.4,30.11,North,355,0.0,4.0,81,0.00,,,0.00,0,Wunderground v.1.15,2013-02-16 08:57:00,
2013-02-16 04:00:00,8.0,3.4,30.10,NNW,343,0.0,4.0,81,0.00,,,0.00,0,Wunderground v.1.15,2013-02-16 09:00:00,
2013-02-16 04:01:00,8.0,3.4,30.10,North,355,0.0,4.0,81,0.00,,,0.00,0,Wunderground v.1.15,2013-02-16 09:01:00,
2013-02-16 04:03:00,7.9,3.3,30.10,North,355,0.0,4.0,81,0.00,,,0.00,0,Wunderground v.1.15,2013-02-16 09:03:00,
2013-02-16 04:04:00,7.9,3.3,30.10,North,360,0.0,4.0,81,0.00,,,0.00,0,Wunderground v.1.15,2013-02-16 09:04:00,
2013-02-16 04:07:00,7.8,3.2,30.10,North,360,0.0,4.0,81,0.00,,,0.00,0,Wunderground v.1.15,2013-02-16 09:07:00,
2013-02-16 04:10:00,7.7,3.1,30.10,North,360,0.0,4.0,81,0.00,,,0.00,0,Wunderground v.1.15,2013-02-16 09:10:00,
2013-02-16 04:13:00,7.6,3.0,30.10,North,360,0.0,4.0,81,0.00,,,0.00,0,Wunderground v.1.15,2013-02-16 09:13:00,
2013-02-16 04:14:00,7.6,3.0,30.11,North,360,0.0,4.0,81,0.00,,,0.00,0,Wunderground v.1.15,2013-02-16 09:14:00,
2013-02-16 04:16:00,7.5,2.9,30.10,North,360,0.0,4.0,81,0.00,,,0.00,0,Wunderground v.1.15,2013-02-16 09:16:00,
2013-02-16 04:17:00,7.5,2.9,30.10,North,360,0.0,4.0,81,0.00,,,0.00,0,Wunderground v.1.15,2013-02-16 09:17:00,
2013-02-16 04:20:00,7.4,2.8,30.10,North,360,0.0,4.0,81,0.00,,,0.00,0,Wunderground v.1.15,2013-02-16 09:20:00,
2013-02-16 04:22:00,7.4,2.8,30.10,North,360,0.0,4.0,81,0.00,,,0.00,0,Wunderground v.1.15,2013-02-16 09:22:00,
2013-02-16 04:23:00,7.3,2.7,30.10,North,360,0.0,4.0,81,0.00,,,0.00,0,Wunderground v.1.15,2013-02-16 09:23:00,
2013-02-16 04:24:00,7.3,2.7,30.10,North,360,0.0,4.0,81,0.00,,,0.00,0,Wunderground v.1.15,2013-02-16 09:24:00,
2013-02-16 04:28:00,7.2,2.6,30.10,North,360,0.0,4.0,81,0.00,,,0.00,0,Wunderground v.1.15,2013-02-16 09:28:00,
2013-02-16 04:30:00,7.1,2.5,30.10,North,360,0.0,4.0,81,0.00,,,0.00,0,Wunderground v.1.15,2013-02-16 09:30:00,
2013-02-16 04:33:00,7.1,2.5,30.11,North,360,0.0,4.0,81,0.00,,,0.00,0,Wunderground v.1.15,2013-02-16 09:33:00,
2013-02-16 04:34:00,7.0,2.4,30.11,North,360,0.0,4.0,81,0.00,,,0.00,0,Wunderground v.1.15,2013-02-16 09:34:00,
2013-02-16 04:37:00,6.9,2.3,30.11,North,360,0.0,4.0,81,0.00,,,0.00,0,Wunderground v.1.15,2013-02-16 09:37:00,
2013-02-16 04:38:00,6.9,2.3,30.11,North,355,0.0,4.0,81,0.00,,,0.00,0,Wunderground v.1.15,2013-02-16 09:38:00,
2013-02-16 04:41:00,6.9,2.3,30.11,NNW,337,0.0,4.0,81,0.00,,,0.00,0,Wunderground v.1.15,2013-02-16 09:41:00,
2013-02-16 04:42:00,6.9,2.3,30.11,NNW,337,0.0,4.0,81,0.00,,,0.00,0,Wunderground v.1.15,2013-02-16 09:42:00,
2013-02-16 04:43:00,6.8,2.2,30.11,NNW,337,0.0,4.0,81,0.00,,,0.00,0,Wunderground v.1.15,2013-02-16 09:43:00,
2013-02-16 04:45:00,6.8,2.2,30.11,NNW,337,0.0,4.0,81,0.00,,,0.00,0,Wunderground v.1.15,2013-02-16 09:45:00,
2013-02-16 04:47:00,6.8,2.2,30.11,NNW,337,0.0,4.0,81,0.00,,,0.00,0,Wunderground v.1.15,2013-02-16 09:47:00,
2013-02-16 04:49:00,6.7,2.1,30.11,NNW,337,0.0,4.0,81,0.00,,,0.00,0,Wunderground v.1.15,2013-02-16 09:49:00,
2013-02-16 04:53:00,6.7,2.1,30.11,NNW,337,0.0,4.0,81,0.00,,,0.00,0,Wunderground v.1.15,2013-02-16 09:53:00,
2013-02-16 04:54:00,6.6,2.0,30.11,NNW,337,0.0,4.0,81,0.00,,,0.00,0,Wunderground v.1.15,2013-02-16 09:54:00,
2013-02-16 04:55:00,6.6,2.0,30.11,NNW,337,0.0,4.0,81,0.00,,,0.00,0,Wunderground v.1.15,2013-02-16 09:55:00,
2013-02-16 04:57:00,6.6,2.0,30.11,NNW,337,0.0,4.0,81,0.00,,,0.00,0,Wunderground v.1.15,2013-02-16 09:57:00,
2013-02-16 05:02:00,6.4,2.1,30.12,NNW,337,0.0,4.0,82,0.00,,,0.00,0,Wunderground v.1.15,2013-02-16 10:02:00,
2013-02-16 05:03:00,6.4,2.1,30.11,NNW,337,0.0,4.0,82,0.00,,,0.00,0,Wunderground v.1.15,2013-02-16 10:03:00,
2013-02-16 05:07:00,6.3,2.0,30.11,NNW,337,0.0,4.0,82,0.00,,,0.00,0,Wunderground v.1.15,2013-02-16 10:07:00,
2013-02-16 05:08:00,6.3,2.0,30.11,NNW,337,0.0,4.0,82,0.00,,,0.00,0,Wunderground v.1.15,2013-02-16 10:08:00,
2013-02-16 05:09:00,6.3,2.0,30.11,NNW,337,0.0,4.0,82,0.00,,,0.00,0,Wunderground v.1.15,2013-02-16 10:09:00,
2013-02-16 05:15:00,6.3,2.0,30.12,NNW,337,0.0,4.0,82,0.00,,,0.00,0,Wunderground v.1.15,2013-02-16 10:15:00,
2013-02-16 05:16:00,6.2,1.9,30.12,NNW,337,0.0,4.0,82,0.00,,,0.00,0,Wunderground v.1.15,2013-02-16 10:16:00,
2013-02-16 05:17:00,6.2,1.9,30.11,NNW,337,0.0,4.0,82,0.00,,,0.00,0,Wunderground v.1.15,2013-02-16 10:17:00,
2013-02-16 05:20:00,6.2,1.9,30.12,NNW,337,0.0,4.0,82,0.00,,,0.00,0,Wunderground v.1.15,2013-02-16 10:20:00,
2013-02-16 05:21:00,6.2,1.9,30.12,NNW,337,0.0,4.0,82,0.00,,,0.00,0,Wunderground v.1.15,2013-02-16 10:21:00,
2013-02-16 05:22:00,6.2,1.9,30.11,NNW,337,0.0,4.0,82,0.00,,,0.00,0,Wunderground v.1.15,2013-02-16 10:22:00,
2013-02-16 05:25:00,6.2,1.9,30.12,NNW,337,0.0,4.0,82,0.00,,,0.00,0,Wunderground v.1.15,2013-02-16 10:25:00,
2013-02-16 05:27:00,6.1,1.8,30.12,NNW,337,0.0,4.0,82,0.00,,,0.00,0,Wunderground v.1.15,2013-02-16 10:27:00,
2013-02-16 05:28:00,6.0,1.7,30.11,NNW,337,0.0,4.0,82,0.00,,,0.00,0,Wunderground v.1.15,2013-02-16 10:28:00,
2013-02-16 05:29:00,6.0,1.7,30.12,NNW,337,0.0,4.0,82,0.00,,,0.00,0,Wunderground v.1.15,2013-02-16 10:29:00,
2013-02-16 05:32:00,5.9,1.6,30.12,NNW,337,0.0,4.0,82,0.00,,,0.00,0,Wunderground v.1.15,2013-02-16 10:32:00,
2013-02-16 05:33:00,5.9,1.6,30.12,NNW,337,0.0,4.0,82,0.00,,,0.00,0,Wunderground v.1.15,2013-02-16 10:33:00,
2013-02-16 05:36:00,5.8,1.8,30.12,NNW,337,0.0,4.0,83,0.00,,,0.00,0,Wunderground v.1.15,2013-02-16 10:36:00,
2013-02-16 05:39:00,5.8,1.8,30.12,NNW,348,0.0,4.0,83,0.00,,,0.00,0,Wunderground v.1.15,2013-02-16 10:39:00,
2013-02-16 05:40:00,5.7,1.7,30.12,NNW,348,0.0,4.0,83,0.00,,,0.00,0,Wunderground v.1.15,2013-02-16 10:40:00,
2013-02-16 05:41:00,5.8,1.8,30.12,NNW,348,0.0,4.0,83,0.00,,,0.00,0,Wunderground v.1.15,2013-02-16 10:41:00,
2013-02-16 05:44:00,5.8,1.8,30.12,NNW,348,0.0,4.0,83,0.00,,,0.00,0,Wunderground v.1.15,2013-02-16 10:44:00,
2013-02-16 05:46:00,5.7,1.7,30.12,North,350,0.0,4.0,83,0.00,,,0.00,0,Wunderground v.1.15,2013-02-16 10:46:00,
2013-02-16 05:47:00,5.7,1.7,30.12,North,350,0.0,4.0,83,0.00,,,0.00,0,Wunderground v.1.15,2013-02-16 10:47:00,
2013-02-16 05:48:00,5.7,1.7,30.12,North,350,0.0,4.0,83,0.00,,,0.00,0,Wunderground v.1.15,2013-02-16 10:48:00,
2013-02-16 05:49:00,5.7,1.7,30.12,North,355,0.0,4.0,83,0.00,,,0.00,0,Wunderground v.1.15,2013-02-16 10:49:00,
2013-02-16 05:51:00,5.7,1.7,30.13,North,355,0.0,4.0,83,0.00,,,0.00,0,Wunderground v.1.15,2013-02-16 10:51:00,
2013-02-16 05:53:00,5.7,1.7,30.13,North,355,0.0,4.0,83,0.00,,,0.00,0,Wunderground v.1.15,2013-02-16 10:53:00,
2013-02-16 05:54:00,5.7,1.7,30.12,North,355,0.0,4.0,83,0.00,,,0.00,0,Wunderground v.1.15,2013-02-16 10:54:00,
2013-02-16 05:55:00,5.6,1.6,30.13,North,355,0.0,4.0,83,0.00,,,0.00,0,Wunderground v.1.15,2013-02-16 10:55:00,
2013-02-16 05:59:00,5.6,1.6,30.13,North,355,0.0,4.0,83,0.00,,,0.00,0,Wunderground v.1.15,2013-02-16 10:59:00,
2013-02-16 06:03:00,5.6,1.6,30.13,North,349,0.0,4.0,83,0.00,,,0.00,0,Wunderground v.1.15,2013-02-16 11:03:00,
2013-02-16 06:07:00,5.5,1.5,30.12,North,350,0.0,4.0,83,0.00,,,0.00,0,Wunderground v.1.15,2013-02-16 11:07:00,
2013-02-16 06:09:00,5.5,1.5,30.13,North,350,0.0,4.0,83,0.00,,,0.00,0,Wunderground v.1.15,2013-02-16 11:09:00,
2013-02-16 06:11:00,5.4,1.4,30.13,North,350,0.0,4.0,83,0.00,,,0.00,0,Wunderground v.1.15,2013-02-16 11:11:00,
2013-02-16 06:14:00,5.3,1.3,30.13,North,350,0.0,4.0,83,0.00,,,0.00,0,Wunderground v.1.15,2013-02-16 11:14:00,
2013-02-16 06:15:00,5.3,1.3,30.13,North,351,0.0,4.0,83,0.00,,,0.00,0,Wunderground v.1.15,2013-02-16 11:15:00,
2013-02-16 06:17:00,5.3,1.3,30.13,North,351,0.0,4.0,83,0.00,,,0.00,0,Wunderground v.1.15,2013-02-16 11:17:00,
2013-02-16 06:23:00,5.1,1.1,30.13,North,351,0.0,4.0,83,0.00,,,0.00,0,Wunderground v.1.15,2013-02-16 11:23:00,
2013-02-16 06:24:00,5.1,1.1,30.13,North,351,0.0,4.0,83,0.00,,,0.00,0,Wunderground v.1.15,2013-02-16 11:24:00,
2013-02-16 06:28:00,5.1,1.1,30.13,North,351,0.0,4.0,83,0.00,,,0.00,0,Wunderground v.1.15,2013-02-16 11:28:00,
2013-02-16 06:29:00,5.0,1.0,30.13,North,351,0.0,4.0,83,0.00,,,0.00,0,Wunderground v.1.15,2013-02-16 11:29:00,
2013-02-16 06:31:00,5.0,1.0,30.13,North,351,0.0,4.0,83,0.00,,,0.00,0,Wunderground v.1.15,2013-02-16 11:31:00,
2013-02-16 06:33:00,5.0,1.0,30.13,North,351,0.0,4.0,83,0.00,,,0.00,0,Wunderground v.1.15,2013-02-16 11:33:00,
2013-02-16 06:35:00,4.9,0.9,30.13,North,355,0.0,4.0,83,0.00,,,0.00,0,Wunderground v.1.15,2013-02-16 11:35:00,
2013-02-16 06:38:00,4.9,0.9,30.13,North,355,0.0,4.0,83,0.00,,,0.00,0,Wunderground v.1.15,2013-02-16 11:38:00,
2013-02-16 06:40:00,4.9,0.9,30.13,North,360,0.0,4.0,83,0.00,,,0.00,0,Wunderground v.1.15,2013-02-16 11:40:00,
2013-02-16 06:41:00,4.9,0.9,30.13,North,350,0.0,4.0,83,0.00,,,0.00,0,Wunderground v.1.15,2013-02-16 11:41:00,
2013-02-16 06:44:00,4.9,0.9,30.13,North,360,0.0,4.0,83,0.00,,,0.00,0,Wunderground v.1.15,2013-02-16 11:44:00,
2013-02-16 06:46:00,4.9,0.9,30.13,North,360,0.0,4.0,83,0.00,,,0.00,0,Wunderground v.1.15,2013-02-16 11:46:00,
2013-02-16 06:49:00,4.8,0.8,30.13,North,360,0.0,4.0,83,0.00,,,0.00,0,Wunderground v.1.15,2013-02-16 11:49:00,
2013-02-16 06:51:00,4.8,0.8,30.13,North,360,0.0,4.0,83,0.00,,,0.00,0,Wunderground v.1.15,2013-02-16 11:51:00,
2013-02-16 06:52:00,4.8,0.8,30.14,North,360,0.0,4.0,83,0.00,,,0.00,0,Wunderground v.1.15,2013-02-16 11:52:00,
2013-02-16 06:56:00,4.8,0.8,30.14,North,360,0.0,4.0,83,0.00,,,0.00,0,Wunderground v.1.15,2013-02-16 11:56:00,
2013-02-16 06:57:00,4.8,0.8,30.14,North,360,0.0,4.0,83,0.00,,,0.00,0,Wunderground v.1.15,2013-02-16 11:57:00,
2013-02-16 06:58:00,4.7,0.7,30.14,North,360,0.0,4.0,83,0.00,,,0.00,0,Wunderground v.1.15,2013-02-16 11:58:00,
2013-02-16 06:59:00,4.7,0.7,30.14,North,360,0.0,4.0,83,0.00,,,0.00,0,Wunderground v.1.15,2013-02-16 11:59:00,
2013-02-16 07:04:00,4.7,0.7,30.14,North,360,0.0,4.0,83,0.00,,,0.00,0,Wunderground v.1.15,2013-02-16 12:04:00,
2013-02-16 07:05:00,4.7,0.7,30.14,North,360,0.0,4.0,83,0.00,,,0.00,0,Wunderground v.1.15,2013-02-16 12:05:00,
2013-02-16 07:06:00,4.7,0.7,30.14,North,360,0.0,4.0,83,0.00,,,0.00,0,Wunderground v.1.15,2013-02-16 12:06:00,
2013-02-16 07:08:00,4.6,0.6,30.14,North,360,0.0,4.0,83,0.00,,,0.00,0,Wunderground v.1.15,2013-02-16 12:08:00,
2013-02-16 07:12:00,4.6,0.6,30.14,North,360,0.0,4.0,83,0.00,,,0.00,0,Wunderground v.1.15,2013-02-16 12:12:00,
2013-02-16 07:13:00,4.6,0.6,30.14,North,360,0.0,4.0,83,0.00,,,0.00,0,Wunderground v.1.15,2013-02-16 12:13:00,
2013-02-16 07:14:00,4.6,0.6,30.14,North,360,0.0,4.0,83,0.00,,,0.00,0,Wunderground v.1.15,2013-02-16 12:14:00,
2013-02-16 07:18:00,4.5,0.7,30.14,NNW,342,0.0,4.0,84,0.00,,,0.00,0,Wunderground v.1.15,2013-02-16 12:18:00,
2013-02-16 07:19:00,4.5,0.7,30.14,NNW,342,0.0,4.0,84,0.00,,,0.00,0,Wunderground v.1.15,2013-02-16 12:19:00,
2013-02-16 07:20:00,4.5,0.7,30.14,NNW,342,0.0,4.0,84,0.00,,,0.00,0,Wunderground v.1.15,2013-02-16 12:20:00,
2013-02-16 07:24:00,4.5,0.7,30.14,NNW,342,0.0,4.0,84,0.00,,,0.00,0,Wunderground v.1.15,2013-02-16 12:24:00,
2013-02-16 07:25:00,4.5,0.7,30.14,NNW,342,0.0,4.0,84,0.00,,,0.00,0,Wunderground v.1.15,2013-02-16 12:25:00,
2013-02-16 07:27:00,4.5,0.7,30.14,NNW,342,0.0,4.0,84,0.00,,,0.00,0,Wunderground v.1.15,2013-02-16 12:27:00,
2013-02-16 07:32:00,4.4,0.6,30.14,NNW,342,0.0,4.0,84,0.00,,,0.00,0,Wunderground v.1.15,2013-02-16 12:32:00,
2013-02-16 07:33:00,4.4,0.6,30.14,NNW,342,0.0,4.0,84,0.00,,,0.00,0,Wunderground v.1.15,2013-02-16 12:33:00,
2013-02-16 07:34:00,4.4,0.6,30.14,NW,323,0.0,4.0,84,0.00,,,0.00,0,Wunderground v.1.15,2013-02-16 12:34:00,
2013-02-16 07:35:00,4.3,0.5,30.14,NW,323,0.0,4.0,84,0.00,,,0.00,0,Wunderground v.1.15,2013-02-16 12:35:00,
2013-02-16 07:41:00,4.2,0.4,30.14,NW,323,0.0,4.0,84,0.00,,,0.00,0,Wunderground v.1.15,2013-02-16 12:41:00,
2013-02-16 07:47:00,4.2,0.4,30.15,NW,323,0.0,4.0,84,0.00,,,0.00,0,Wunderground v.1.15,2013-02-16 12:47:00,
2013-02-16 07:48:00,4.2,0.4,30.15,NW,323,0.0,4.0,84,0.00,,,0.00,0,Wunderground v.1.15,2013-02-16 12:48:00,
2013-02-16 07:51:00,4.2,0.4,30.15,NW,323,0.0,4.0,84,0.00,,,0.00,5,Wunderground v.1.15,2013-02-16 12:51:00,
2013-02-16 07:53:00,4.2,0.4,30.15,NW,323,0.0,4.0,84,0.00,,,0.00,5,Wunderground v.1.15,2013-02-16 12:53:00,
2013-02-16 07:57:00,4.2,0.4,30.15,NW,323,0.0,4.0,84,0.00,,,0.00,7,Wunderground v.1.15,2013-02-16 12:57:00,
2013-02-16 07:59:00,4.1,0.3,30.15,NW,323,0.0,4.0,84,0.00,,,0.00,7,Wunderground v.1.15,2013-02-16 12:59:00,
2013-02-16 08:02:00,4.2,0.4,30.15,NW,323,0.0,4.0,84,0.00,,,0.00,7,Wunderground v.1.15,2013-02-16 13:02:00,
2013-02-16 08:04:00,4.1,0.3,30.15,NW,323,0.0,4.0,84,0.00,,,0.00,9,Wunderground v.1.15,2013-02-16 13:04:00,
2013-02-16 08:05:00,4.1,0.3,30.15,NW,323,0.0,4.0,84,0.00,,,0.00,9,Wunderground v.1.15,2013-02-16 13:05:00,
2013-02-16 08:07:00,4.1,0.3,30.15,NW,323,0.0,4.0,84,0.00,,,0.00,9,Wunderground v.1.15,2013-02-16 13:07:00,
2013-02-16 08:09:00,4.1,0.3,30.15,NW,323,0.0,4.0,84,0.00,,,0.00,11,Wunderground v.1.15,2013-02-16 13:09:00,
2013-02-16 08:12:00,4.1,0.3,30.15,NW,323,0.0,4.0,84,0.00,,,0.00,11,Wunderground v.1.15,2013-02-16 13:12:00,
2013-02-16 08:13:00,4.1,0.3,30.15,NW,323,0.0,4.0,84,0.00,,,0.00,12,Wunderground v.1.15,2013-02-16 13:13:00,
2013-02-16 08:15:00,4.1,0.3,30.15,NW,323,0.0,4.0,84,0.00,,,0.00,12,Wunderground v.1.15,2013-02-16 13:15:00,
2013-02-16 08:17:00,4.1,0.3,30.15,NW,323,0.0,4.0,84,0.00,,,0.00,12,Wunderground v.1.15,2013-02-16 13:17:00,
2013-02-16 08:20:00,4.1,0.3,30.15,North,349,0.0,4.0,84,0.00,,,0.00,14,Wunderground v.1.15,2013-02-16 13:20:00,
2013-02-16 08:21:00,4.2,0.4,30.15,North,349,0.0,4.0,84,0.00,,,0.00,14,Wunderground v.1.15,2013-02-16 13:21:00,
2013-02-16 08:23:00,4.1,0.3,30.15,North,349,0.0,4.0,84,0.00,,,0.00,14,Wunderground v.1.15,2013-02-16 13:23:00,
2013-02-16 08:27:00,4.2,0.4,30.15,NNW,333,0.0,4.0,84,0.00,,,0.00,14,Wunderground v.1.15,2013-02-16 13:27:00,
2013-02-16 08:30:00,4.2,0.4,30.15,NNW,333,0.0,4.0,84,0.00,,,0.00,14,Wunderground v.1.15,2013-02-16 13:30:00,
2013-02-16 08:32:00,4.2,0.4,30.16,NNW,333,0.0,4.0,84,0.00,,,0.00,14,Wunderground v.1.15,2013-02-16 13:32:00,
2013-02-16 08:33:00,4.2,0.4,30.16,NNW,333,0.0,4.0,84,0.00,,,0.00,14,Wunderground v.1.15,2013-02-16 13:33:00,
2013-02-16 08:34:00,4.2,0.4,30.16,NNW,333,0.0,4.0,84,0.00,,,0.00,16,Wunderground v.1.15,2013-02-16 13:34:00,
2013-02-16 08:36:00,4.3,0.5,30.15,NNW,333,0.0,4.0,84,0.00,,,0.00,16,Wunderground v.1.15,2013-02-16 13:36:00,
2013-02-16 08:38:00,4.3,0.5,30.16,NNW,333,0.0,4.0,84,0.00,,,0.00,16,Wunderground v.1.15,2013-02-16 13:38:00,
2013-02-16 08:39:00,4.2,0.4,30.16,NNW,333,0.0,4.0,84,0.00,,,0.00,16,Wunderground v.1.15,2013-02-16 13:39:00,
2013-02-16 08:41:00,4.3,0.5,30.16,North,5,0.0,4.0,84,0.00,,,0.00,16,Wunderground v.1.15,2013-02-16 13:41:00,
2013-02-16 08:46:00,4.3,0.3,30.16,NW,319,0.0,4.0,83,0.00,,,0.00,18,Wunderground v.1.15,2013-02-16 13:46:00,
2013-02-16 08:47:00,4.2,0.2,30.16,NW,319,0.0,4.0,83,0.00,,,0.00,18,Wunderground v.1.15,2013-02-16 13:47:00,
2013-02-16 08:48:00,4.2,0.2,30.16,NW,319,0.0,4.0,83,0.00,,,0.00,18,Wunderground v.1.15,2013-02-16 13:48:00,
2013-02-16 08:52:00,4.2,0.2,30.16,NNW,329,0.0,4.0,83,0.00,,,0.00,19,Wunderground v.1.15,2013-02-16 13:52:00,
2013-02-16 08:55:00,4.2,0.2,30.16,NNE,21,0.0,4.0,83,0.00,,,0.00,19,Wunderground v.1.15,2013-02-16 13:55:00,
2013-02-16 08:56:00,4.2,0.2,30.16,NNE,21,0.0,4.0,83,0.00,,,0.00,21,Wunderground v.1.15,2013-02-16 13:56:00,
2013-02-16 08:58:00,4.2,0.2,30.16,NNE,21,0.0,4.0,83,0.00,,,0.00,25,Wunderground v.1.15,2013-02-16 13:58:00,
2013-02-16 08:59:00,4.2,0.2,30.16,NNE,21,0.0,4.0,83,0.00,,,0.00,25,Wunderground v.1.15,2013-02-16 13:59:00,
2013-02-16 09:03:00,4.3,0.3,30.16,NNE,20,0.0,4.0,83,0.00,,,0.00,28,Wunderground v.1.15,2013-02-16 14:03:00,
2013-02-16 09:04:00,4.3,0.3,30.16,NNE,21,0.0,4.0,83,0.00,,,0.00,25,Wunderground v.1.15,2013-02-16 14:04:00,
2013-02-16 09:07:00,4.4,0.4,30.16,NNE,17,0.0,4.0,83,0.00,,,0.00,26,Wunderground v.1.15,2013-02-16 14:07:00,
2013-02-16 09:09:00,4.4,0.4,30.16,NNE,15,0.0,4.0,83,0.00,,,0.00,28,Wunderground v.1.15,2013-02-16 14:09:00,
2013-02-16 09:10:00,4.5,0.5,30.16,NNE,15,0.0,4.0,83,0.00,,,0.00,37,Wunderground v.1.15,2013-02-16 14:10:00,
2013-02-16 09:11:00,4.5,0.5,30.16,NNE,15,0.0,4.0,83,0.00,,,0.00,37,Wunderground v.1.15,2013-02-16 14:11:00,
2013-02-16 09:15:00,4.7,0.7,30.16,WNW,296,0.0,4.0,83,0.00,,,0.00,33,Wunderground v.1.15,2013-02-16 14:15:00,
2013-02-16 09:16:00,4.7,0.7,30.16,North,355,0.0,4.0,83,0.00,,,0.00,35,Wunderground v.1.15,2013-02-16 14:16:00,
2013-02-16 09:18:00,4.8,0.8,30.16,NNW,333,0.0,4.0,83,0.00,,,0.00,30,Wunderground v.1.15,2013-02-16 14:18:00,
2013-02-16 09:20:00,4.9,0.9,30.16,NNW,333,0.0,4.0,83,0.00,,,0.00,26,Wunderground v.1.15,2013-02-16 14:20:00,
2013-02-16 09:22:00,4.9,0.9,30.16,NW,319,0.0,4.0,83,0.00,,,0.00,30,Wunderground v.1.15,2013-02-16 14:22:00,
2013-02-16 09:23:00,5.0,1.0,30.16,North,355,0.0,4.0,83,0.00,,,0.00,30,Wunderground v.1.15,2013-02-16 14:23:00,
2013-02-16 09:27:00,5.1,0.8,30.16,NW,326,0.0,4.0,82,0.00,,,0.00,23,Wunderground v.1.15,2013-02-16 14:27:00,
2013-02-16 09:29:00,5.1,0.8,30.16,NW,317,0.0,4.0,82,0.00,,,0.00,23,Wunderground v.1.15,2013-02-16 14:29:00,
2013-02-16 09:33:00,5.2,0.9,30.16,NW,315,0.0,4.0,82,0.00,,,0.00,25,Wunderground v.1.15,2013-02-16 14:33:00,
2013-02-16 09:35:00,5.2,0.6,30.16,NW,315,0.0,4.0,81,0.00,,,0.00,28,Wunderground v.1.15,2013-02-16 14:35:00,
2013-02-16 09:36:00,5.3,0.7,30.16,NW,315,0.0,4.0,81,0.00,,,0.00,25,Wunderground v.1.15,2013-02-16 14:36:00,
2013-02-16 09:38:00,5.3,0.7,30.16,NW,315,0.0,4.0,81,0.00,,,0.00,23,Wunderground v.1.15,2013-02-16 14:38:00,
2013-02-16 09:40:00,5.3,0.7,30.16,NW,315,0.0,4.0,81,0.00,,,0.00,25,Wunderground v.1.15,2013-02-16 14:40:00,
2013-02-16 09:44:00,5.4,0.8,30.16,North,360,0.0,4.0,81,0.00,,,0.00,25,Wunderground v.1.15,2013-02-16 14:44:00,
2013-02-16 09:46:00,5.5,0.9,30.16,NNW,328,0.0,4.0,81,0.00,,,0.00,25,Wunderground v.1.15,2013-02-16 14:46:00,
2013-02-16 09:48:00,5.5,0.9,30.16,NW,324,0.0,4.0,81,0.00,,,0.00,44,Wunderground v.1.15,2013-02-16 14:48:00,
2013-02-16 09:50:00,5.6,1.0,30.16,NNW,338,1.0,4.0,81,0.00,,,0.00,56,Wunderground v.1.15,2013-02-16 14:50:00,
2013-02-16 09:54:00,5.7,0.9,30.16,NNE,24,1.0,4.0,80,0.00,,,0.00,123,Wunderground v.1.15,2013-02-16 14:54:00,
2013-02-16 09:55:00,5.7,0.9,30.16,NNW,334,1.0,4.0,80,0.00,,,0.00,139,Wunderground v.1.15,2013-02-16 14:55:00,
2013-02-16 09:56:00,5.7,0.9,30.16,NW,324,1.0,4.0,80,0.00,,,0.00,139,Wunderground v.1.15,2013-02-16 14:56:00,
2013-02-16 09:59:00,5.8,1.0,30.17,NNW,329,1.0,4.0,80,0.00,,,0.00,179,Wunderground v.1.15,2013-02-16 14:59:00,
2013-02-16 10:00:00,5.8,0.7,30.16,NNW,329,1.0,4.0,79,0.00,,,0.00,151,Wunderground v.1.15,2013-02-16 15:00:00,
2013-02-16 10:02:00,5.8,0.7,30.16,NW,317,1.0,4.0,79,0.00,,,0.00,165,Wunderground v.1.15,2013-02-16 15:02:00,
2013-02-16 10:04:00,5.8,0.7,30.16,NNW,334,1.0,4.0,79,0.00,,,0.00,148,Wunderground v.1.15,2013-02-16 15:04:00,
2013-02-16 10:06:00,5.9,0.8,30.16,NNW,346,1.0,4.0,79,0.00,,,0.00,156,Wunderground v.1.15,2013-02-16 15:06:00,
2013-02-16 10:07:00,5.9,0.8,30.16,NNW,346,1.0,4.0,79,0.00,,,0.00,172,Wunderground v.1.15,2013-02-16 15:07:00,
2013-02-16 10:09:00,6.0,0.9,30.16,NNW,343,1.0,4.0,79,0.00,,,0.00,178,Wunderground v.1.15,2013-02-16 15:09:00,
2013-02-16 10:13:00,6.2,1.1,30.16,NNW,328,1.0,4.0,79,0.00,,,0.00,142,Wunderground v.1.15,2013-02-16 15:13:00,
2013-02-16 10:15:00,6.3,1.2,30.17,North,355,1.0,4.0,79,0.00,,,0.00,167,Wunderground v.1.15,2013-02-16 15:15:00,
2013-02-16 10:19:00,6.5,1.4,30.17,NNW,347,1.0,4.0,79,0.00,,,0.00,130,Wunderground v.1.15,2013-02-16 15:19:00,
2013-02-16 10:21:00,6.6,1.5,30.16,NNW,347,1.0,4.0,79,0.00,,,0.00,176,Wunderground v.1.15,2013-02-16 15:21:00,
2013-02-16 10:22:00,6.6,1.5,30.16,NNW,347,0.0,4.0,79,0.00,,,0.00,193,Wunderground v.1.15,2013-02-16 15:22:00,
2013-02-16 10:24:00,6.7,1.6,30.16,NNW,347,0.0,4.0,79,0.00,,,0.00,211,Wunderground v.1.15,2013-02-16 15:24:00,
2013-02-16 10:25:00,6.8,1.7,30.16,NNW,347,0.0,4.0,79,0.00,,,0.00,197,Wunderground v.1.15,2013-02-16 15:25:00,
2013-02-16 10:27:00,6.9,1.8,30.16,NNW,347,0.0,4.0,79,0.00,,,0.00,197,Wunderground v.1.15,2013-02-16 15:27:00,
2013-02-16 10:30:00,7.0,1.9,30.16,NNW,347,0.0,4.0,79,0.00,,,0.00,28,Wunderground v.1.15,2013-02-16 15:30:00,
2013-02-16 10:33:00,7.2,2.1,30.17,NNW,347,0.0,4.0,79,0.00,,,0.00,28,Wunderground v.1.15,2013-02-16 15:33:00,
2013-02-16 10:34:00,7.3,1.9,30.16,NNW,347,0.0,4.0,78,0.00,,,0.00,28,Wunderground v.1.15,2013-02-16 15:34:00,
2013-02-16 10:35:00,7.3,1.9,30.16,NNW,347,0.0,4.0,78,0.00,,,0.00,28,Wunderground v.1.15,2013-02-16 15:35:00,
2013-02-16 10:39:00,7.5,2.1,30.16,NNW,347,0.0,4.0,78,0.00,,,0.00,30,Wunderground v.1.15,2013-02-16 15:39:00,
2013-02-16 10:40:00,7.5,2.1,30.16,NNW,348,0.0,4.0,78,0.00,,,0.00,30,Wunderground v.1.15,2013-02-16 15:40:00,
2013-02-16 10:42:00,7.6,2.2,30.16,NNW,348,0.0,4.0,78,0.00,,,0.00,30,Wunderground v.1.15,2013-02-16 15:42:00,
2013-02-16 10:44:00,7.7,2.0,30.16,NNW,348,0.0,4.0,77,0.00,,,0.00,32,Wunderground v.1.15,2013-02-16 15:44:00,
2013-02-16 10:45:00,7.8,2.4,30.16,NNW,348,0.0,4.0,78,0.00,,,0.00,32,Wunderground v.1.15,2013-02-16 15:45:00,
2013-02-16 10:48:00,7.9,2.5,30.16,NNW,347,0.0,4.0,78,0.00,,,0.00,32,Wunderground v.1.15,2013-02-16 15:48:00,
2013-02-16 10:50:00,8.0,2.6,30.16,NNW,347,0.0,4.0,78,0.00,,,0.00,32,Wunderground v.1.15,2013-02-16 15:50:00,
2013-02-16 10:51:00,8.1,2.7,30.16,NNW,347,0.0,4.0,78,0.00,,,0.00,33,Wunderground v.1.15,2013-02-16 15:51:00,
2013-02-16 10:53:00,8.2,2.5,30.16,NNW,347,0.0,4.0,77,0.00,,,0.00,35,Wunderground v.1.15,2013-02-16 15:53:00,
2013-02-16 10:54:00,8.2,2.5,30.16,NNW,347,0.0,4.0,77,0.00,,,0.00,33,Wunderground v.1.15,2013-02-16 15:54:00,
2013-02-16 10:58:00,8.5,2.8,30.16,NNE,15,0.0,4.0,77,0.00,,,0.00,33,Wunderground v.1.15,2013-02-16 15:58:00,
2013-02-16 11:00:00,8.6,2.9,30.16,NNW,342,1.0,4.0,77,0.00,,,0.00,35,Wunderground v.1.15,2013-02-16 16:00:00,
2013-02-16 11:01:00,8.6,2.9,30.16,NNW,342,1.0,4.0,77,0.00,,,0.00,35,Wunderground v.1.15,2013-02-16 16:01:00,
2013-02-16 11:04:00,8.9,2.9,30.16,North,350,1.0,4.0,76,0.00,,,0.00,42,Wunderground v.1.15,2013-02-16 16:04:00,
2013-02-16 11:06:00,8.9,2.9,30.16,North,350,1.0,4.0,76,0.00,,,0.00,39,Wunderground v.1.15,2013-02-16 16:06:00,
2013-02-16 11:10:00,9.2,3.2,30.16,North,350,1.0,4.0,76,0.00,,,0.00,40,Wunderground v.1.15,2013-02-16 16:10:00,
2013-02-16 11:11:00,9.2,3.2,30.16,North,350,1.0,4.0,76,0.00,,,0.00,44,Wunderground v.1.15,2013-02-16 16:11:00,
2013-02-16 11:12:00,9.2,2.9,30.16,North,350,1.0,4.0,75,0.00,,,0.00,42,Wunderground v.1.15,2013-02-16 16:12:00,
2013-02-16 11:15:00,9.4,3.1,30.16,North,350,1.0,4.0,75,0.00,,,0.00,44,Wunderground v.1.15,2013-02-16 16:15:00,
2013-02-16 11:16:00,9.4,3.1,30.16,North,350,1.0,4.0,75,0.00,,,0.00,47,Wunderground v.1.15,2013-02-16 16:16:00,
2013-02-16 11:18:00,9.6,3.3,30.16,NNE,13,1.0,4.0,75,0.00,,,0.00,62,Wunderground v.1.15,2013-02-16 16:18:00,
2013-02-16 11:19:00,9.6,3.6,30.16,NNE,13,1.0,4.0,76,0.00,,,0.00,69,Wunderground v.1.15,2013-02-16 16:19:00,
2013-02-16 11:23:00,10.1,4.0,30.16,NNE,13,0.0,4.0,76,0.00,,,0.00,67,Wunderground v.1.15,2013-02-16 16:23:00,
2013-02-16 11:24:00,10.1,4.0,30.16,NNE,13,0.0,4.0,76,0.00,,,0.00,65,Wunderground v.1.15,2013-02-16 16:24:00,
2013-02-16 11:26:00,10.3,4.2,30.16,NNE,13,0.0,4.0,76,0.00,,,0.00,63,Wunderground v.1.15,2013-02-16 16:26:00,
2013-02-16 11:30:00,10.7,4.9,30.16,NNE,13,0.0,4.0,77,0.00,,,0.00,62,Wunderground v.1.15,2013-02-16 16:30:00,
2013-02-16 11:31:00,10.8,5.0,30.16,NNE,13,0.0,4.0,77,0.00,,,0.00,67,Wunderground v.1.15,2013-02-16 16:31:00,
2013-02-16 11:32:00,10.8,5.0,30.16,NNE,13,0.0,4.0,77,0.00,,,0.00,65,Wunderground v.1.15,2013-02-16 16:32:00,
2013-02-16 11:35:00,11.0,4.9,30.16,SE,135,0.0,4.0,76,0.00,,,0.00,81,Wunderground v.1.15,2013-02-16 16:35:00,
2013-02-16 11:36:00,11.0,4.9,30.16,SE,135,0.0,4.0,76,0.00,,,0.00,77,Wunderground v.1.15,2013-02-16 16:36:00,
2013-02-16 11:38:00,11.2,5.1,30.16,SE,135,0.0,4.0,76,0.00,,,0.00,62,Wunderground v.1.15,2013-02-16 16:38:00,
2013-02-16 11:40:00,11.2,5.1,30.16,North,350,0.0,4.0,76,0.00,,,0.00,67,Wunderground v.1.15,2013-02-16 16:40:00,
2013-02-16 11:41:00,11.2,5.1,30.16,North,11,0.0,4.0,76,0.00,,,0.00,70,Wunderground v.1.15,2013-02-16 16:41:00,
2013-02-16 11:42:00,11.3,4.9,30.16,North,11,0.0,4.0,75,0.00,,,0.00,79,Wunderground v.1.15,2013-02-16 16:42:00,
2013-02-16 11:45:00,11.3,4.9,30.16,North,11,0.0,4.0,75,0.00,,,0.00,81,Wunderground v.1.15,2013-02-16 16:45:00,
2013-02-16 11:47:00,11.4,5.0,30.16,North,11,0.0,4.0,75,0.00,,,0.00,63,Wunderground v.1.15,2013-02-16 16:47:00,
2013-02-16 11:49:00,11.6,5.2,30.16,North,11,0.0,4.0,75,0.00,,,0.00,62,Wunderground v.1.15,2013-02-16 16:49:00,
2013-02-16 11:52:00,11.8,5.4,30.16,NNE,16,0.0,4.0,75,0.00,,,0.00,63,Wunderground v.1.15,2013-02-16 16:52:00,
2013-02-16 11:55:00,11.8,5.1,30.16,NNE,17,0.0,4.0,74,0.00,,,0.00,60,Wunderground v.1.15,2013-02-16 16:55:00,
2013-02-16 11:57:00,11.9,5.2,30.16,NNE,17,0.0,4.0,74,0.00,,,0.00,56,Wunderground v.1.15,2013-02-16 16:57:00,
2013-02-16 12:00:00,12.1,5.4,30.15,NNE,17,0.0,4.0,74,0.00,,,0.00,79,Wunderground v.1.15,2013-02-16 17:00:00,
2013-02-16 12:03:00,12.2,5.8,30.16,NNE,17,0.0,4.0,75,0.00,,,0.00,90,Wunderground v.1.15,2013-02-16 17:03:00,
2013-02-16 12:06:00,12.4,6.0,30.15,NNE,16,0.0,4.0,75,0.00,,,0.00,74,Wunderground v.1.15,2013-02-16 17:06:00,
2013-02-16 12:07:00,12.5,6.4,30.15,NNE,16,0.0,4.0,76,0.00,,,0.00,81,Wunderground v.1.15,2013-02-16 17:07:00,
2013-02-16 12:10:00,12.5,6.1,30.15,SSE,147,0.0,4.0,75,0.00,,,0.00,79,Wunderground v.1.15,2013-02-16 17:10:00,
2013-02-16 12:11:00,12.5,6.1,30.15,SSE,147,0.0,4.0,75,0.00,,,0.00,74,Wunderground v.1.15,2013-02-16 17:11:00,
2013-02-16 12:15:00,12.5,6.1,30.15,SSE,147,0.0,4.0,75,0.00,,,0.00,65,Wunderground v.1.15,2013-02-16 17:15:00,
2013-02-16 12:17:00,12.5,6.1,30.15,SSE,148,0.0,4.0,75,0.00,,,0.00,74,Wunderground v.1.15,2013-02-16 17:17:00,
2013-02-16 12:19:00,12.5,6.1,30.15,SSE,148,0.0,4.0,75,0.00,,,0.00,70,Wunderground v.1.15,2013-02-16 17:19:00,
2013-02-16 12:21:00,12.6,6.2,30.15,SSE,148,0.0,4.0,75,0.00,,,0.00,67,Wunderground v.1.15,2013-02-16 17:21:00,
2013-02-16 12:24:00,12.6,6.2,30.15,SE,146,0.0,4.0,75,0.00,,,0.00,65,Wunderground v.1.15,2013-02-16 17:24:00,
2013-02-16 12:26:00,12.6,6.2,30.15,SE,146,0.0,4.0,75,0.00,,,0.00,67,Wunderground v.1.15,2013-02-16 17:26:00,
2013-02-16 12:30:00,12.6,6.2,30.15,SE,146,0.0,4.0,75,0.00,,,0.00,47,Wunderground v.1.15,2013-02-16 17:30:00,
2013-02-16 12:31:00,12.6,6.2,30.15,SE,146,0.0,4.0,75,0.00,,,0.00,53,Wunderground v.1.15,2013-02-16 17:31:00,
2013-02-16 12:32:00,12.5,6.1,30.15,SE,146,0.0,4.0,75,0.00,,,0.00,72,Wunderground v.1.15,2013-02-16 17:32:00,
2013-02-16 12:34:00,12.4,5.7,30.15,SE,145,0.0,4.0,74,0.00,,,0.00,84,Wunderground v.1.15,2013-02-16 17:34:00,
2013-02-16 12:36:00,12.4,5.7,30.15,SSE,163,0.0,4.0,74,0.00,,,0.00,105,Wunderground v.1.15,2013-02-16 17:36:00,
2013-02-16 12:39:00,12.5,6.1,30.15,SW,215,0.0,4.0,75,0.00,,,0.00,86,Wunderground v.1.15,2013-02-16 17:39:00,
2013-02-16 12:40:00,12.5,6.1,30.15,SW,215,0.0,4.0,75,0.00,,,0.00,77,Wunderground v.1.15,2013-02-16 17:40:00,
2013-02-16 12:42:00,12.5,6.1,30.14,SW,216,0.0,4.0,75,0.00,,,0.00,51,Wunderground v.1.15,2013-02-16 17:42:00,
2013-02-16 12:44:00,12.6,6.2,30.14,SW,216,0.0,4.0,75,0.00,,,0.00,65,Wunderground v.1.15,2013-02-16 17:44:00,
2013-02-16 12:46:00,12.6,6.2,30.14,West,271,0.0,4.0,75,0.00,,,0.00,72,Wunderground v.1.15,2013-02-16 17:46:00,
2013-02-16 12:49:00,12.5,5.8,30.14,West,271,0.0,4.0,74,0.00,,,0.00,95,Wunderground v.1.15,2013-02-16 17:49:00,
2013-02-16 12:50:00,12.5,6.1,30.14,West,271,0.0,4.0,75,0.00,,,0.00,98,Wunderground v.1.15,2013-02-16 17:50:00,
2013-02-16 12:55:00,12.6,6.2,30.14,West,271,0.0,4.0,75,0.00,,,0.00,90,Wunderground v.1.15,2013-02-16 17:55:00,
2013-02-16 12:56:00,12.6,6.5,30.14,NW,326,0.0,4.0,76,0.00,,,0.00,86,Wunderground v.1.15,2013-02-16 17:56:00,
2013-02-16 12:57:00,12.6,6.5,30.14,NW,325,0.0,4.0,76,0.00,,,0.00,84,Wunderground v.1.15,2013-02-16 17:57:00,
2013-02-16 12:58:00,12.7,6.6,30.14,North,350,0.0,4.0,76,0.00,,,0.00,72,Wunderground v.1.15,2013-02-16 17:58:00,
2013-02-16 13:01:00,12.7,6.6,30.14,NW,307,0.0,4.0,76,0.00,,,0.00,69,Wunderground v.1.15,2013-02-16 18:01:00,
2013-02-16 13:03:00,12.7,6.6,30.14,NNW,348,0.0,4.0,76,0.00,,,0.00,63,Wunderground v.1.15,2013-02-16 18:03:00,
2013-02-16 13:04:00,12.6,6.5,30.14,SW,221,0.0,4.0,76,0.00,,,0.00,63,Wunderground v.1.15,2013-02-16 18:04:00,
2013-02-16 13:07:00,12.5,6.1,30.13,WNW,302,0.0,4.0,75,0.00,,,0.00,53,Wunderground v.1.15,2013-02-16 18:07:00,
2013-02-16 13:09:00,12.4,6.0,30.13,NW,317,0.0,4.0,75,0.00,,,0.00,65,Wunderground v.1.15,2013-02-16 18:09:00,
2013-02-16 13:11:00,12.3,6.2,30.13,NW,325,0.0,4.0,76,0.00,,,0.00,65,Wunderground v.1.15,2013-02-16 18:11:00,
2013-02-16 13:13:00,12.2,6.1,30.13,NW,325,0.0,4.0,76,0.00,,,0.00,72,Wunderground v.1.15,2013-02-16 18:13:00,
2013-02-16 13:15:00,12.2,6.1,30.13,SSE,150,0.0,4.0,76,0.00,,,0.00,72,Wunderground v.1.15,2013-02-16 18:15:00,
2013-02-16 13:18:00,12.2,6.1,30.14,South,183,0.0,4.0,76,0.00,,,0.00,76,Wunderground v.1.15,2013-02-16 18:18:00,
2013-02-16 13:20:00,12.2,6.1,30.13,SSW,196,1.0,1.0,76,0.00,,,0.00,70,Wunderground v.1.15,2013-02-16 18:20:00,
2013-02-16 13:21:00,12.2,6.4,30.13,South,180,1.0,4.0,77,0.00,,,0.00,56,Wunderground v.1.15,2013-02-16 18:21:00,
2013-02-16 13:22:00,12.1,6.3,30.13,WNW,297,1.0,4.0,77,0.00,,,0.00,56,Wunderground v.1.15,2013-02-16 18:22:00,
2013-02-16 13:24:00,12.2,6.4,30.13,ESE,123,1.0,4.0,77,0.00,,,0.00,44,Wunderground v.1.15,2013-02-16 18:24:00,
2013-02-16 13:26:00,12.2,6.4,30.13,NW,311,1.0,4.0,77,0.00,,,0.00,40,Wunderground v.1.15,2013-02-16 18:26:00,
2013-02-16 13:29:00,12.3,6.5,30.13,South,182,1.0,4.0,77,0.00,,,0.00,39,Wunderground v.1.15,2013-02-16 18:29:00,
2013-02-16 13:31:00,12.3,6.5,30.13,SSE,163,0.0,4.0,77,0.00,,,0.00,46,Wunderground v.1.15,2013-02-16 18:31:00,
2013-02-16 13:32:00,12.3,6.5,30.13,South,183,0.0,4.0,77,0.00,,,0.00,44,Wunderground v.1.15,2013-02-16 18:32:00,
2013-02-16 13:37:00,12.4,6.3,30.13,SSE,168,1.0,4.0,76,0.00,,,0.00,49,Wunderground v.1.15,2013-02-16 18:37:00,
2013-02-16 13:41:00,12.5,6.1,30.13,South,181,1.0,4.0,75,0.00,,,0.00,47,Wunderground v.1.15,2013-02-16 18:41:00,
2013-02-16 13:43:00,12.6,5.9,30.13,South,184,2.0,4.0,74,0.00,,,0.00,46,Wunderground v.1.15,2013-02-16 18:43:00,
2013-02-16 13:44:00,12.6,5.9,30.13,South,175,1.0,4.0,74,0.00,,,0.00,46,Wunderground v.1.15,2013-02-16 18:44:00,
2013-02-16 13:45:00,12.7,6.0,30.13,South,175,1.0,4.0,74,0.00,,,0.00,47,Wunderground v.1.15,2013-02-16 18:45:00,
2013-02-16 13:49:00,12.8,6.1,30.12,South,175,2.0,5.0,74,0.00,,,0.00,44,Wunderground v.1.15,2013-02-16 18:49:00,
2013-02-16 13:50:00,12.9,6.2,30.13,South,174,2.0,4.0,74,0.00,,,0.00,44,Wunderground v.1.15,2013-02-16 18:50:00,
2013-02-16 13:51:00,13.0,6.3,30.13,South,174,2.0,4.0,74,0.00,,,0.00,46,Wunderground v.1.15,2013-02-16 18:51:00,
2013-02-16 13:52:00,13.0,6.6,30.13,South,174,2.0,4.0,75,0.00,,,0.00,49,Wunderground v.1.15,2013-02-16 18:52:00,
2013-02-16 13:54:00,13.1,6.7,30.13,South,174,1.0,4.0,75,0.00,,,0.00,51,Wunderground v.1.15,2013-02-16 18:54:00,
2013-02-16 13:56:00,13.3,6.9,30.13,South,174,1.0,4.0,75,0.00,,,0.00,54,Wunderground v.1.15,2013-02-16 18:56:00,
2013-02-16 13:57:00,13.3,6.9,30.13,South,174,1.0,4.0,75,0.00,,,0.00,60,Wunderground v.1.15,2013-02-16 18:57:00,
2013-02-16 14:01:00,13.6,6.8,30.13,South,170,0.0,4.0,74,0.00,,,0.00,40,Wunderground v.1.15,2013-02-16 19:01:00,
2013-02-16 14:02:00,13.7,6.9,30.13,South,170,0.0,4.0,74,0.00,,,0.00,39,Wunderground v.1.15,2013-02-16 19:02:00,
2013-02-16 14:03:00,13.7,6.9,30.13,South,169,0.0,4.0,74,0.00,,,0.00,53,Wunderground v.1.15,2013-02-16 19:03:00,
2013-02-16 14:06:00,13.8,6.4,30.13,SSW,202,1.0,4.0,72,0.00,,,0.00,51,Wunderground v.1.15,2013-02-16 19:06:00,
2013-02-16 14:07:00,13.8,6.4,30.13,SW,224,1.0,4.0,72,0.00,,,0.00,53,Wunderground v.1.15,2013-02-16 19:07:00,
2013-02-16 14:08:00,13.9,6.5,30.13,SW,218,1.0,4.0,72,0.00,,,0.00,53,Wunderground v.1.15,2013-02-16 19:08:00,
2013-02-16 14:13:00,14.1,6.1,30.13,South,185,1.0,4.0,70,0.00,,,0.00,56,Wunderground v.1.15,2013-02-16 19:13:00,
2013-02-16 14:14:00,14.2,6.2,30.13,South,169,1.0,4.0,70,0.00,,,0.00,60,Wunderground v.1.15,2013-02-16 19:14:00,
2013-02-16 14:16:00,14.3,6.6,30.12,East,80,1.0,4.0,71,0.00,,,0.00,60,Wunderground v.1.15,2013-02-16 19:16:00,
2013-02-16 14:21:00,14.5,6.8,30.12,South,170,2.0,4.0,71,0.00,,,0.00,65,Wunderground v.1.15,2013-02-16 19:21:00,
2013-02-16 14:22:00,14.5,6.8,30.12,ESE,123,2.0,4.0,71,0.00,,,0.00,62,Wunderground v.1.15,2013-02-16 19:22:00,
2013-02-16 14:27:00,14.7,7.0,30.13,South,191,3.0,5.0,71,0.00,,,0.00,60,Wunderground v.1.15,2013-02-16 19:27:00,
2013-02-16 14:28:00,14.8,7.1,30.13,WSW,247,2.0,5.0,71,0.00,,,0.00,60,Wunderground v.1.15,2013-02-16 19:28:00,
2013-02-16 14:32:00,14.9,7.2,30.12,WSW,242,2.0,4.0,71,0.00,,,0.00,77,Wunderground v.1.15,2013-02-16 19:32:00,
2013-02-16 14:34:00,15.0,7.3,30.12,NNW,341,1.0,4.0,71,0.00,,,0.00,84,Wunderground v.1.15,2013-02-16 19:34:00,
2013-02-16 14:35:00,15.0,7.3,30.12,NNW,332,1.0,4.0,71,0.00,,,0.00,77,Wunderground v.1.15,2013-02-16 19:35:00,
2013-02-16 14:39:00,15.1,7.1,30.13,SSW,197,2.0,8.0,70,0.00,,,0.00,62,Wunderground v.1.15,2013-02-16 19:39:00,
2013-02-16 14:40:00,15.1,6.8,30.13,South,173,2.0,7.0,69,0.00,,,0.00,58,Wunderground v.1.15,2013-02-16 19:40:00,
2013-02-16 14:42:00,15.0,6.0,30.13,SSW,209,3.0,7.0,67,0.00,,,0.00,58,Wunderground v.1.15,2013-02-16 19:42:00,
2013-02-16 14:46:00,14.8,5.5,30.12,SSE,165,5.0,9.0,66,0.00,,,0.00,51,Wunderground v.1.15,2013-02-16 19:46:00,
2013-02-16 14:47:00,14.8,5.5,30.12,South,182,5.0,9.0,66,0.00,,,0.00,56,Wunderground v.1.15,2013-02-16 19:47:00,
2013-02-16 14:49:00,14.7,5.4,30.13,South,188,6.0,10.0,66,0.00,,,0.00,54,Wunderground v.1.15,2013-02-16 19:49:00,
2013-02-16 14:52:00,14.6,5.3,30.13,South,186,7.0,11.0,66,0.00,,,0.00,54,Wunderground v.1.15,2013-02-16 19:52:00,
2013-02-16 14:53:00,14.5,4.9,30.13,SW,219,7.0,11.0,65,0.00,,,0.00,56,Wunderground v.1.15,2013-02-16 19:53:00,
2013-02-16 14:56:00,14.5,4.9,30.13,SSE,166,7.0,11.0,65,0.00,,,0.00,63,Wunderground v.1.15,2013-02-16 19:56:00,
2013-02-16 15:00:00,14.4,4.8,30.13,SSW,205,6.0,8.0,65,0.00,,,0.00,56,Wunderground v.1.15,2013-02-16 20:00:00,
2013-02-16 15:04:00,14.4,4.8,30.13,South,175,7.0,8.0,65,0.00,,,0.00,51,Wunderground v.1.15,2013-02-16 20:04:00,
2013-02-16 15:07:00,14.3,4.7,30.13,SSW,205,7.0,8.0,65,0.00,,,0.00,49,Wunderground v.1.15,2013-02-16 20:07:00,
2013-02-16 15:11:00,14.3,4.3,30.13,SSW,196,6.0,6.0,64,0.00,,,0.00,40,Wunderground v.1.15,2013-02-16 20:11:00,
2013-02-16 15:13:00,14.4,4.8,30.13,SSW,196,6.0,6.0,65,0.00,,,0.00,39,Wunderground v.1.15,2013-02-16 20:13:00,
2013-02-16 15:14:00,14.4,4.8,30.13,SSW,201,6.0,6.0,65,0.00,,,0.00,51,Wunderground v.1.15,2013-02-16 20:14:00,
2013-02-16 15:15:00,14.4,4.8,30.13,SSW,201,5.0,6.0,65,0.00,,,0.00,51,Wunderground v.1.15,2013-02-16 20:15:00,
2013-02-16 15:17:00,14.5,4.5,30.13,SW,215,5.0,6.0,64,0.00,,,0.00,51,Wunderground v.1.15,2013-02-16 20:17:00,
2013-02-16 15:20:00,14.5,4.5,30.13,South,176,5.0,6.0,64,0.00,,,0.00,53,Wunderground v.1.15,2013-02-16 20:20:00,
2013-02-16 15:24:00,14.6,5.0,30.13,SSW,203,5.0,6.0,65,0.00,,,0.00,58,Wunderground v.1.15,2013-02-16 20:24:00,
2013-02-16 15:25:00,14.6,5.0,30.13,SSW,201,5.0,10.0,65,0.00,,,0.00,53,Wunderground v.1.15,2013-02-16 20:25:00,
2013-02-16 15:26:00,14.7,5.1,30.13,SSW,194,5.0,10.0,65,0.00,,,0.00,51,Wunderground v.1.15,2013-02-16 20:26:00,
2013-02-16 15:27:00,14.7,5.1,30.13,SSW,199,5.0,10.0,65,0.00,,,0.00,53,Wunderground v.1.15,2013-02-16 20:27:00,
2013-02-16 15:29:00,14.6,5.0,30.13,South,169,5.0,10.0,65,0.00,,,0.00,54,Wunderground v.1.15,2013-02-16 20:29:00,
2013-02-16 15:32:00,14.5,4.9,30.13,South,183,6.0,13.0,65,0.00,,,0.00,58,Wunderground v.1.15,2013-02-16 20:32:00,
2013-02-16 15:33:00,14.5,4.9,30.13,South,185,7.0,13.0,65,0.00,,,0.00,60,Wunderground v.1.15,2013-02-16 20:33:00,
2013-02-16 15:38:00,14.3,5.0,30.13,SSW,203,9.0,13.0,66,0.00,,,0.00,53,Wunderground v.1.15,2013-02-16 20:38:00,
2013-02-16 15:41:00,14.4,5.4,30.13,South,177,9.0,10.0,67,0.00,,,0.00,54,Wunderground v.1.15,2013-02-16 20:41:00,
2013-02-16 15:46:00,14.4,5.4,30.14,SSW,209,6.0,10.0,67,0.00,,,0.00,49,Wunderground v.1.15,2013-02-16 20:46:00,
2013-02-16 15:47:00,14.4,5.4,30.14,SSW,205,6.0,10.0,67,0.00,,,0.00,49,Wunderground v.1.15,2013-02-16 20:47:00,
2013-02-16 15:49:00,14.3,5.3,30.14,South,188,6.0,11.0,67,0.00,,,0.00,49,Wunderground v.1.15,2013-02-16 20:49:00,
2013-02-16 15:50:00,14.3,5.3,30.14,South,175,6.0,6.0,67,0.00,,,0.00,51,Wunderground v.1.15,2013-02-16 20:50:00,
2013-02-16 15:56:00,14.1,5.1,30.14,South,181,7.0,9.0,67,0.00,,,0.00,44,Wunderground v.1.15,2013-02-16 20:56:00,
2013-02-16 15:57:00,14.1,5.1,30.14,South,175,7.0,10.0,67,0.00,,,0.00,44,Wunderground v.1.15,2013-02-16 20:57:00,
2013-02-16 15:58:00,14.1,5.1,30.14,South,180,7.0,10.0,67,0.00,,,0.00,42,Wunderground v.1.15,2013-02-16 20:58:00,
2013-02-16 15:59:00,14.1,5.1,30.14,South,184,6.0,10.0,67,0.00,,,0.00,44,Wunderground v.1.15,2013-02-16 20:59:00,
2013-02-16 16:04:00,13.9,5.0,30.14,SSW,211,6.0,9.0,67,0.00,,,0.00,44,Wunderground v.1.15,2013-02-16 21:04:00,
2013-02-16 16:05:00,13.9,5.0,30.14,SSW,202,6.0,10.0,67,0.00,,,0.00,42,Wunderground v.1.15,2013-02-16 21:05:00,
2013-02-16 16:06:00,13.8,4.9,30.14,SSW,212,6.0,10.0,67,0.00,,,0.00,42,Wunderground v.1.15,2013-02-16 21:06:00,
2013-02-16 16:10:00,13.8,5.2,30.14,SW,217,6.0,6.0,68,0.00,,,0.00,33,Wunderground v.1.15,2013-02-16 21:10:00,
2013-02-16 16:11:00,13.8,5.2,30.14,SW,215,6.0,6.0,68,0.00,,,0.00,39,Wunderground v.1.15,2013-02-16 21:11:00,
2013-02-16 16:12:00,13.7,5.1,30.14,SSW,201,6.0,6.0,68,0.00,,,0.00,39,Wunderground v.1.15,2013-02-16 21:12:00,
2013-02-16 16:16:00,13.7,5.1,30.14,South,182,5.0,7.0,68,0.00,,,0.00,42,Wunderground v.1.15,2013-02-16 21:16:00,
2013-02-16 16:17:00,13.7,5.1,30.14,South,188,5.0,7.0,68,0.00,,,0.00,42,Wunderground v.1.15,2013-02-16 21:17:00,
2013-02-16 16:18:00,13.7,5.4,30.14,SSW,197,5.0,7.0,69,0.00,,,0.00,42,Wunderground v.1.15,2013-02-16 21:18:00,
2013-02-16 16:22:00,13.7,5.4,30.14,South,186,6.0,9.0,69,0.00,,,0.00,33,Wunderground v.1.15,2013-02-16 21:22:00,
2013-02-16 16:23:00,13.6,5.3,30.14,SSW,210,6.0,10.0,69,0.00,,,0.00,32,Wunderground v.1.15,2013-02-16 21:23:00,
2013-02-16 16:25:00,13.6,5.0,30.14,South,190,6.0,10.0,68,0.00,,,0.00,39,Wunderground v.1.15,2013-02-16 21:25:00,
2013-02-16 16:28:00,13.5,5.2,30.15,SSW,205,6.0,10.0,69,0.00,,,0.00,39,Wunderground v.1.15,2013-02-16 21:28:00,
2013-02-16 16:30:00,13.5,5.5,30.14,South,186,6.0,6.0,70,0.00,,,0.00,40,Wunderground v.1.15,2013-02-16 21:30:00,
2013-02-16 16:31:00,13.5,5.5,30.14,SSW,207,6.0,6.0,70,0.00,,,0.00,40,Wunderground v.1.15,2013-02-16 21:31:00,
2013-02-16 16:32:00,13.5,5.5,30.15,South,187,6.0,6.0,70,0.00,,,0.00,35,Wunderground v.1.15,2013-02-16 21:32:00,
2013-02-16 16:34:00,13.5,5.5,30.14,South,175,6.0,7.0,70,0.00,,,0.00,30,Wunderground v.1.15,2013-02-16 21:34:00,
2013-02-16 16:38:00,13.5,5.8,30.15,South,188,6.0,7.0,71,0.00,,,0.00,32,Wunderground v.1.15,2013-02-16 21:38:00,
2013-02-16 16:39:00,13.5,5.8,30.15,SSW,202,6.0,7.0,71,0.00,,,0.00,25,Wunderground v.1.15,2013-02-16 21:39:00,
2013-02-16 16:40:00,13.5,5.8,30.14,South,188,6.0,6.0,71,0.00,,,0.00,26,Wunderground v.1.15,2013-02-16 21:40:00,
2013-02-16 16:42:00,13.5,6.1,30.15,South,173,6.0,10.0,72,0.00,,,0.00,30,Wunderground v.1.15,2013-02-16 21:42:00,
2013-02-16 16:43:00,13.6,6.2,30.15,South,184,6.0,10.0,72,0.00,,,0.00,35,Wunderground v.1.15,2013-02-16 21:43:00,
2013-02-16 16:46:00,13.6,6.2,30.15,South,187,5.0,10.0,72,0.00,,,0.00,32,Wunderground v.1.15,2013-02-16 21:46:00,
2013-02-16 16:49:00,13.6,5.9,30.15,SSE,156,6.0,10.0,71,0.00,,,0.00,25,Wunderground v.1.15,2013-02-16 21:49:00,
2013-02-16 16:50:00,13.5,5.8,30.15,SSW,194,6.0,8.0,71,0.00,,,0.00,35,Wunderground v.1.15,2013-02-16 21:50:00,
2013-02-16 16:51:00,13.5,5.8,30.15,South,187,6.0,8.0,71,0.00,,,0.00,30,Wunderground v.1.15,2013-02-16 21:51:00,
2013-02-16 16:52:00,13.5,5.8,30.15,South,176,6.0,11.0,71,0.00,,,0.00,35,Wunderground v.1.15,2013-02-16 21:52:00,
2013-02-16 16:54:00,13.5,6.1,30.15,South,190,6.0,11.0,72,0.00,,,0.00,33,Wunderground v.1.15,2013-02-16 21:54:00,
2013-02-16 16:56:00,13.6,6.2,30.15,South,181,7.0,11.0,72,0.00,,,0.00,33,Wunderground v.1.15,2013-02-16 21:56:00,
2013-02-16 16:58:00,13.6,6.5,30.15,SW,224,6.0,11.0,73,0.00,,,0.00,33,Wunderground v.1.15,2013-02-16 21:58:00,
2013-02-16 17:00:00,13.7,6.6,30.15,SSW,201,6.0,10.0,73,0.00,,,0.00,23,Wunderground v.1.15,2013-02-16 22:00:00,
2013-02-16 17:01:00,13.7,6.6,30.15,SSW,211,6.0,10.0,73,0.00,,,0.00,25,Wunderground v.1.15,2013-02-16 22:01:00,
2013-02-16 17:07:00,13.6,6.2,30.15,South,187,6.0,10.0,72,0.00,,,0.00,51,Wunderground v.1.15,2013-02-16 22:07:00,
2013-02-16 17:08:00,13.6,6.2,30.15,South,175,7.0,10.0,72,0.00,,,0.00,47,Wunderground v.1.15,2013-02-16 22:08:00,
2013-02-16 17:10:00,13.6,6.5,30.15,SSW,208,7.0,7.0,73,0.00,,,0.00,28,Wunderground v.1.15,2013-02-16 22:10:00,
2013-02-16 17:11:00,13.6,6.2,30.15,South,170,7.0,7.0,72,0.00,,,0.00,28,Wunderground v.1.15,2013-02-16 22:11:00,
2013-02-16 17:14:00,13.6,6.5,30.15,South,171,7.0,7.0,73,0.00,,,0.00,32,Wunderground v.1.15,2013-02-16 22:14:00,
2013-02-16 17:16:00,13.6,6.5,30.15,South,172,6.0,7.0,73,0.00,,,0.00,19,Wunderground v.1.15,2013-02-16 22:16:00,
2013-02-16 17:19:00,13.6,6.5,30.15,South,181,6.0,7.0,73,0.00,,,0.00,18,Wunderground v.1.15,2013-02-16 22:19:00,
2013-02-16 17:20:00,13.5,6.5,30.15,South,176,6.0,6.0,73,0.00,,,0.00,18,Wunderground v.1.15,2013-02-16 22:20:00,
2013-02-16 17:23:00,13.5,6.5,30.15,South,180,6.0,10.0,73,0.00,,,0.00,16,Wunderground v.1.15,2013-02-16 22:23:00,
2013-02-16 17:24:00,13.5,6.5,30.15,SSW,193,6.0,10.0,73,0.00,,,0.00,23,Wunderground v.1.15,2013-02-16 22:24:00,
2013-02-16 17:25:00,13.5,6.5,30.15,SSW,198,6.0,10.0,73,0.00,,,0.00,23,Wunderground v.1.15,2013-02-16 22:25:00,
2013-02-16 17:30:00,13.5,6.5,30.15,South,188,6.0,6.0,73,0.00,,,0.00,14,Wunderground v.1.15,2013-02-16 22:30:00,
2013-02-16 17:31:00,13.5,6.5,30.15,South,173,6.0,6.0,73,0.00,,,0.00,14,Wunderground v.1.15,2013-02-16 22:31:00,
2013-02-16 17:35:00,13.4,6.1,30.15,South,182,5.0,8.0,72,0.00,,,0.00,14,Wunderground v.1.15,2013-02-16 22:35:00,
2013-02-16 17:37:00,13.4,6.1,30.16,SW,214,6.0,8.0,72,0.00,,,0.00,18,Wunderground v.1.15,2013-02-16 22:37:00,
2013-02-16 17:40:00,13.3,5.6,30.15,SSW,199,6.0,7.0,71,0.00,,,0.00,11,Wunderground v.1.15,2013-02-16 22:40:00,
2013-02-16 17:43:00,13.2,5.6,30.16,SSW,211,6.0,8.0,71,0.00,,,0.00,11,Wunderground v.1.15,2013-02-16 22:43:00,
2013-02-16 17:44:00,13.2,5.6,30.16,SSW,193,6.0,8.0,71,0.00,,,0.00,11,Wunderground v.1.15,2013-02-16 22:44:00,
2013-02-16 17:49:00,13.0,5.7,30.16,SSW,198,6.0,8.0,72,0.00,,,0.00,7,Wunderground v.1.15,2013-02-16 22:49:00,
2013-02-16 17:50:00,13.0,5.7,30.16,SW,223,7.0,7.0,72,0.00,,,0.00,7,Wunderground v.1.15,2013-02-16 22:50:00,
2013-02-16 17:51:00,13.0,5.7,30.16,South,188,7.0,7.0,72,0.00,,,0.00,7,Wunderground v.1.15,2013-02-16 22:51:00,
2013-02-16 17:55:00,12.9,5.6,30.16,South,185,7.0,7.0,72,0.00,,,0.00,5,Wunderground v.1.15,2013-02-16 22:55:00,
2013-02-16 17:58:00,12.8,5.5,30.16,SSW,212,6.0,7.0,72,0.00,,,0.00,5,Wunderground v.1.15,2013-02-16 22:58:00,
2013-02-16 18:03:00,12.7,5.7,30.16,SSW,202,5.0,8.0,73,0.00,,,0.00,0,Wunderground v.1.15,2013-02-16 23:03:00,
2013-02-16 18:04:00,12.7,5.7,30.16,South,178,5.0,8.0,73,0.00,,,0.00,0,Wunderground v.1.15,2013-02-16 23:04:00,
2013-02-16 18:07:00,12.7,5.7,30.16,SSW,201,5.0,11.0,73,0.00,,,0.00,0,Wunderground v.1.15,2013-02-16 23:07:00,
2013-02-16 18:09:00,12.6,5.3,30.16,SSW,211,6.0,11.0,72,0.00,,,0.00,0,Wunderground v.1.15,2013-02-16 23:09:00,
2013-02-16 18:10:00,12.6,5.3,30.16,South,170,6.0,6.0,72,0.00,,,0.00,0,Wunderground v.1.15,2013-02-16 23:10:00,
2013-02-16 18:12:00,12.5,5.5,30.16,South,177,6.0,6.0,73,0.00,,,0.00,0,Wunderground v.1.15,2013-02-16 23:12:00,
2013-02-16 18:16:00,12.5,5.5,30.16,SSW,196,5.0,6.0,73,0.00,,,0.00,0,Wunderground v.1.15,2013-02-16 23:16:00,
2013-02-16 18:17:00,12.5,5.5,30.16,South,191,5.0,6.0,73,0.00,,,0.00,0,Wunderground v.1.15,2013-02-16 23:17:00,
2013-02-16 18:18:00,12.5,5.5,30.16,SSW,199,4.0,6.0,73,0.00,,,0.00,0,Wunderground v.1.15,2013-02-16 23:18:00,
2013-02-16 18:19:00,12.4,5.7,30.16,South,187,4.0,7.0,74,0.00,,,0.00,0,Wunderground v.1.15,2013-02-16 23:19:00,
2013-02-16 18:23:00,12.3,5.6,30.16,SSW,209,4.0,6.0,74,0.00,,,0.00,0,Wunderground v.1.15,2013-02-16 23:23:00,
2013-02-16 18:25:00,12.3,5.6,30.16,SSW,196,4.0,6.0,74,0.00,,,0.00,0,Wunderground v.1.15,2013-02-16 23:25:00,
2013-02-16 18:27:00,12.3,5.6,30.16,South,174,4.0,6.0,74,0.00,,,0.00,0,Wunderground v.1.15,2013-02-16 23:27:00,
2013-02-16 18:28:00,12.3,5.6,30.17,SSW,198,4.0,7.0,74,0.00,,,0.00,0,Wunderground v.1.15,2013-02-16 23:28:00,
2013-02-16 18:29:00,12.3,5.6,30.16,SSW,199,4.0,7.0,74,0.00,,,0.00,0,Wunderground v.1.15,2013-02-16 23:29:00,
2013-02-16 18:33:00,12.2,5.5,30.16,SSW,205,4.0,5.0,74,0.00,,,0.00,0,Wunderground v.1.15,2013-02-16 23:33:00,
2013-02-16 18:34:00,12.2,5.5,30.16,South,191,4.0,5.0,74,0.00,,,0.00,0,Wunderground v.1.15,2013-02-16 23:34:00,
2013-02-16 18:36:00,12.2,5.5,30.16,South,173,5.0,10.0,74,0.00,,,0.00,0,Wunderground v.1.15,2013-02-16 23:36:00,
2013-02-16 18:40:00,12.2,5.8,30.16,South,169,5.0,5.0,75,0.00,,,0.00,0,Wunderground v.1.15,2013-02-16 23:40:00,
2013-02-16 18:42:00,12.2,5.8,30.16,SSW,198,5.0,6.0,75,0.00,,,0.00,0,Wunderground v.1.15,2013-02-16 23:42:00,
2013-02-16 18:45:00,12.2,5.8,30.16,South,184,5.0,7.0,75,0.00,,,0.00,0,Wunderground v.1.15,2013-02-16 23:45:00,
2013-02-16 18:46:00,12.2,5.8,30.17,South,177,5.0,9.0,75,0.00,,,0.00,0,Wunderground v.1.15,2013-02-16 23:46:00,
2013-02-16 18:47:00,12.2,5.8,30.17,South,175,5.0,11.0,75,0.00,,,0.00,0,Wunderground v.1.15,2013-02-16 23:47:00,
2013-02-16 18:48:00,12.2,5.8,30.17,SSW,194,5.0,11.0,75,0.00,,,0.00,0,Wunderground v.1.15,2013-02-16 23:48:00,
2013-02-16 18:51:00,12.2,6.1,30.17,SW,215,6.0,9.0,76,0.00,,,0.00,0,Wunderground v.1.15,2013-02-16 23:51:00,
2013-02-16 18:52:00,12.2,6.1,30.17,South,179,6.0,9.0,76,0.00,,,0.00,0,Wunderground v.1.15,2013-02-16 23:52:00,
2013-02-16 18:53:00,12.2,6.1,30.16,SSW,192,6.0,9.0,76,0.00,,,0.00,0,Wunderground v.1.15,2013-02-16 23:53:00,
2013-02-16 18:54:00,12.2,6.1,30.16,SSW,200,6.0,9.0,76,0.00,,,0.00,0,Wunderground v.1.15,2013-02-16 23:54:00,
2013-02-16 18:57:00,12.1,6.0,30.17,South,186,6.0,9.0,76,0.00,,,0.00,0,Wunderground v.1.15,2013-02-16 23:57:00,
2013-02-16 19:00:00,12.1,6.0,30.16,SSW,202,4.0,4.0,76,0.00,,,0.00,0,Wunderground v.1.15,2013-02-17 00:00:00,
2013-02-16 19:03:00,12.0,5.9,30.17,South,191,3.0,7.0,76,0.00,,,0.00,0,Wunderground v.1.15,2013-02-17 00:03:00,
2013-02-16 19:06:00,11.9,5.8,30.17,South,180,4.0,7.0,76,0.00,,,0.00,0,Wunderground v.1.15,2013-02-17 00:06:00,
2013-02-16 19:07:00,11.9,5.8,30.17,South,175,4.0,8.0,76,0.00,,,0.00,0,Wunderground v.1.15,2013-02-17 00:07:00,
2013-02-16 19:10:00,11.9,5.8,30.17,South,183,5.0,5.0,76,0.00,,,0.00,0,Wunderground v.1.15,2013-02-17 00:10:00,
2013-02-16 19:11:00,11.9,5.8,30.17,South,180,6.0,6.0,76,0.00,,,0.00,0,Wunderground v.1.15,2013-02-17 00:11:00,
2013-02-16 19:13:00,11.9,5.8,30.17,SSW,194,6.0,6.0,76,0.00,,,0.00,0,Wunderground v.1.15,2013-02-17 00:13:00,
2013-02-16 19:14:00,11.9,5.8,30.17,South,186,6.0,6.0,76,0.00,,,0.00,0,Wunderground v.1.15,2013-02-17 00:14:00,
2013-02-16 19:16:00,11.8,5.7,30.17,South,190,5.0,6.0,76,0.00,,,0.00,0,Wunderground v.1.15,2013-02-17 00:16:00,
2013-02-16 19:17:00,11.8,6.0,30.17,South,180,5.0,6.0,77,0.00,,,0.00,0,Wunderground v.1.15,2013-02-17 00:17:00,
2013-02-16 19:19:00,11.8,6.0,30.17,South,173,4.0,8.0,77,0.00,,,0.00,0,Wunderground v.1.15,2013-02-17 00:19:00,
2013-02-16 19:21:00,11.8,6.0,30.17,South,175,4.0,6.0,77,0.00,,,0.00,0,Wunderground v.1.15,2013-02-17 00:21:00,
2013-02-16 19:24:00,11.8,6.3,30.17,South,170,3.0,6.0,78,0.00,,,0.00,0,Wunderground v.1.15,2013-02-17 00:24:00,
2013-02-16 19:27:00,11.7,6.2,30.17,SSW,213,3.0,6.0,78,0.00,,,0.00,0,Wunderground v.1.15,2013-02-17 00:27:00,
2013-02-16 19:28:00,11.8,6.3,30.17,SW,221,3.0,6.0,78,0.00,,,0.00,0,Wunderground v.1.15,2013-02-17 00:28:00,
2013-02-16 19:33:00,11.8,6.0,30.17,SSW,209,3.0,6.0,77,0.00,,,0.00,0,Wunderground v.1.15,2013-02-17 00:33:00,
2013-02-16 19:35:00,11.8,6.0,30.17,SW,226,4.0,6.0,77,0.00,,,0.00,0,Wunderground v.1.15,2013-02-17 00:35:00,
2013-02-16 19:36:00,11.8,5.7,30.17,South,188,4.0,6.0,76,0.00,,,0.00,0,Wunderground v.1.15,2013-02-17 00:36:00,
2013-02-16 19:38:00,11.8,5.7,30.17,SSW,211,4.0,6.0,76,0.00,,,0.00,0,Wunderground v.1.15,2013-02-17 00:38:00,
2013-02-16 19:40:00,11.8,5.7,30.17,SSW,207,4.0,4.0,76,0.00,,,0.00,0,Wunderground v.1.15,2013-02-17 00:40:00,
2013-02-16 19:42:00,11.7,5.3,30.17,SW,216,3.0,4.0,75,0.00,,,0.00,0,Wunderground v.1.15,2013-02-17 00:42:00,
2013-02-16 19:45:00,11.6,5.2,30.17,SSW,211,2.0,4.0,75,0.00,,,0.00,0,Wunderground v.1.15,2013-02-17 00:45:00,
2013-02-16 19:47:00,11.5,5.1,30.17,SSW,205,2.0,4.0,75,0.00,,,0.00,0,Wunderground v.1.15,2013-02-17 00:47:00,
2013-02-16 19:48:00,11.5,5.4,30.17,SSW,205,1.0,4.0,76,0.00,,,0.00,0,Wunderground v.1.15,2013-02-17 00:48:00,
2013-02-16 19:50:00,11.4,5.0,30.17,SSW,198,1.0,1.0,75,0.00,,,0.00,0,Wunderground v.1.15,2013-02-17 00:50:00,
2013-02-16 19:54:00,11.2,5.1,30.17,SW,229,1.0,4.0,76,0.00,,,0.00,0,Wunderground v.1.15,2013-02-17 00:54:00,
2013-02-16 19:55:00,11.2,5.1,30.17,SW,227,1.0,4.0,76,0.00,,,0.00,0,Wunderground v.1.15,2013-02-17 00:55:00,
2013-02-16 19:59:00,10.9,4.8,30.17,West,264,1.0,4.0,76,0.00,,,0.00,0,Wunderground v.1.15,2013-02-17 00:59:00,
2013-02-16 20:01:00,10.9,4.8,30.17,West,264,0.0,4.0,76,0.00,,,0.00,0,Wunderground v.1.15,2013-02-17 01:01:00,
2013-02-16 20:05:00,10.7,4.6,30.17,SSW,207,0.0,4.0,76,0.00,,,0.00,0,Wunderground v.1.15,2013-02-17 01:05:00,
2013-02-16 20:06:00,10.7,4.6,30.16,SSW,207,0.0,4.0,76,0.00,,,0.00,0,Wunderground v.1.15,2013-02-17 01:06:00,
2013-02-16 20:08:00,10.6,4.8,30.17,SSW,207,0.0,4.0,77,0.00,,,0.00,0,Wunderground v.1.15,2013-02-17 01:08:00,
2013-02-16 20:11:00,10.5,4.7,30.17,WSW,240,0.0,4.0,77,0.00,,,0.00,0,Wunderground v.1.15,2013-02-17 01:11:00,
2013-02-16 20:12:00,10.5,4.7,30.17,WNW,298,0.0,4.0,77,0.00,,,0.00,0,Wunderground v.1.15,2013-02-17 01:12:00,
2013-02-16 20:13:00,10.4,4.6,30.17,SW,232,0.0,4.0,77,0.00,,,0.00,0,Wunderground v.1.15,2013-02-17 01:13:00,
2013-02-16 20:15:00,10.4,4.6,30.17,SW,232,0.0,4.0,77,0.00,,,0.00,0,Wunderground v.1.15,2013-02-17 01:15:00,
2013-02-16 20:18:00,10.3,4.5,30.17,SSW,207,0.0,4.0,77,0.00,,,0.00,0,Wunderground v.1.15,2013-02-17 01:18:00,
2013-02-16 20:19:00,10.3,4.5,30.17,SSW,207,0.0,4.0,77,0.00,,,0.00,0,Wunderground v.1.15,2013-02-17 01:19:00,
2013-02-16 20:20:00,10.4,4.6,30.18,SSW,203,0.0,0.0,77,0.00,,,0.00,0,Wunderground v.1.15,2013-02-17 01:20:00,
2013-02-16 20:22:00,10.3,4.5,30.18,SSW,203,0.0,0.0,77,0.00,,,0.00,0,Wunderground v.1.15,2013-02-17 01:22:00,
2013-02-16 20:25:00,10.2,4.4,30.17,SW,228,0.0,0.0,77,0.00,,,0.00,0,Wunderground v.1.15,2013-02-17 01:25:00,
2013-02-16 20:26:00,10.2,4.4,30.17,SSW,213,0.0,0.0,77,0.00,,,0.00,0,Wunderground v.1.15,2013-02-17 01:26:00,
2013-02-16 20:30:00,10.1,4.3,30.17,NW,323,1.0,1.0,77,0.00,,,0.00,0,Wunderground v.1.15,2013-02-17 01:30:00,
2013-02-16 20:31:00,10.1,4.3,30.17,West,259,1.0,1.0,77,0.00,,,0.00,0,Wunderground v.1.15,2013-02-17 01:31:00,
2013-02-16 20:35:00,10.0,4.2,30.17,West,271,1.0,1.0,77,0.00,,,0.00,0,Wunderground v.1.15,2013-02-17 01:35:00,
2013-02-16 20:36:00,10.0,4.2,30.18,West,267,0.0,1.0,77,0.00,,,0.00,0,Wunderground v.1.15,2013-02-17 01:36:00,
2013-02-16 20:39:00,9.9,4.1,30.18,SSW,212,0.0,1.0,77,0.00,,,0.00,0,Wunderground v.1.15,2013-02-17 01:39:00,
2013-02-16 20:41:00,9.9,4.1,30.18,SW,220,0.0,0.0,77,0.00,,,0.00,0,Wunderground v.1.15,2013-02-17 01:41:00,
2013-02-16 20:42:00,9.9,4.1,30.18,SW,220,0.0,0.0,77,0.00,,,0.00,0,Wunderground v.1.15,2013-02-17 01:42:00,
2013-02-16 20:44:00,9.8,3.7,30.18,SSW,198,0.0,0.0,76,0.00,,,0.00,0,Wunderground v.1.15,2013-02-17 01:44:00,
2013-02-16 20:46:00,9.7,3.7,30.18,SW,232,1.0,1.0,76,0.00,,,0.00,0,Wunderground v.1.15,2013-02-17 01:46:00,
2013-02-16 20:48:00,9.6,3.8,30.18,SW,231,1.0,2.0,77,0.00,,,0.00,0,Wunderground v.1.15,2013-02-17 01:48:00,
2013-02-16 20:50:00,9.6,3.8,30.18,SSW,213,1.0,1.0,77,0.00,,,0.00,0,Wunderground v.1.15,2013-02-17 01:50:00,
2013-02-16 20:53:00,9.5,3.7,30.18,SSW,213,0.0,1.0,77,0.00,,,0.00,0,Wunderground v.1.15,2013-02-17 01:53:00,
2013-02-16 20:54:00,9.4,3.6,30.18,SSW,213,0.0,1.0,77,0.00,,,0.00,0,Wunderground v.1.15,2013-02-17 01:54:00,
2013-02-16 20:55:00,9.4,3.6,30.18,SSW,213,0.0,1.0,77,0.00,,,0.00,0,Wunderground v.1.15,2013-02-17 01:55:00,
2013-02-16 21:01:00,9.2,3.4,30.18,SSW,213,0.0,0.0,77,0.00,,,0.00,0,Wunderground v.1.15,2013-02-17 02:01:00,
2013-02-16 21:03:00,9.1,3.4,30.18,SW,215,0.0,0.0,77,0.00,,,0.00,0,Wunderground v.1.15,2013-02-17 02:03:00,
2013-02-16 21:04:00,9.0,3.3,30.18,West,270,0.0,0.0,77,0.00,,,0.00,0,Wunderground v.1.15,2013-02-17 02:04:00,
2013-02-16 21:06:00,8.9,3.2,30.18,West,267,0.0,1.0,77,0.00,,,0.00,0,Wunderground v.1.15,2013-02-17 02:06:00,
2013-02-16 21:09:00,8.8,3.1,30.18,NNW,338,0.0,1.0,77,0.00,,,0.00,0,Wunderground v.1.15,2013-02-17 02:09:00,
2013-02-16 21:10:00,8.8,3.3,30.18,NNW,338,0.0,1.0,78,0.00,,,0.00,0,Wunderground v.1.15,2013-02-17 02:10:00,
2013-02-16 21:16:00,8.5,3.0,30.18,NNW,338,0.0,2.0,78,0.00,,,0.00,0,Wunderground v.1.15,2013-02-17 02:16:00,
2013-02-16 21:17:00,8.4,2.9,30.18,NNW,338,0.0,2.0,78,0.00,,,0.00,0,Wunderground v.1.15,2013-02-17 02:17:00,
2013-02-16 21:19:00,8.3,2.9,30.18,NNW,338,0.0,2.0,78,0.00,,,0.00,0,Wunderground v.1.15,2013-02-17 02:19:00,
2013-02-16 21:22:00,8.1,2.7,30.18,NNW,338,0.0,2.0,78,0.00,,,0.00,0,Wunderground v.1.15,2013-02-17 02:22:00,
2013-02-16 21:25:00,8.0,2.6,30.18,NNW,338,0.0,2.0,78,0.00,,,0.00,0,Wunderground v.1.15,2013-02-17 02:25:00,
2013-02-16 21:26:00,8.0,2.6,30.18,NNW,338,0.0,2.0,78,0.00,,,0.00,0,Wunderground v.1.15,2013-02-17 02:26:00,
2013-02-16 21:31:00,7.8,2.6,30.18,NNW,338,0.0,2.0,79,0.00,,,0.00,0,Wunderground v.1.15,2013-02-17 02:31:00,
2013-02-16 21:32:00,7.8,2.6,30.18,NNW,338,0.0,2.0,79,0.00,,,0.00,0,Wunderground v.1.15,2013-02-17 02:32:00,
2013-02-16 21:34:00,7.8,2.6,30.18,NNW,338,0.0,2.0,79,0.00,,,0.00,0,Wunderground v.1.15,2013-02-17 02:34:00,
2013-02-16 21:38:00,7.7,2.5,30.19,NNW,338,0.0,2.0,79,0.00,,,0.00,0,Wunderground v.1.15,2013-02-17 02:38:00,
2013-02-16 21:39:00,7.7,2.5,30.19,NNW,338,0.0,2.0,79,0.00,,,0.00,0,Wunderground v.1.15,2013-02-17 02:39:00,
2013-02-16 21:42:00,7.7,2.5,30.19,NNW,338,0.0,2.0,79,0.00,,,0.00,0,Wunderground v.1.15,2013-02-17 02:42:00,
2013-02-16 21:44:00,7.6,2.4,30.19,NNW,338,0.0,2.0,79,0.00,,,0.00,0,Wunderground v.1.15,2013-02-17 02:44:00,
2013-02-16 21:47:00,7.6,2.4,30.19,NNW,338,0.0,2.0,79,0.00,,,0.00,0,Wunderground v.1.15,2013-02-17 02:47:00,
2013-02-16 21:49:00,7.6,2.7,30.19,NNW,338,0.0,2.0,80,0.00,,,0.00,0,Wunderground v.1.15,2013-02-17 02:49:00,
2013-02-16 21:50:00,7.6,2.7,30.19,NNW,338,0.0,2.0,80,0.00,,,0.00,0,Wunderground v.1.15,2013-02-17 02:50:00,
2013-02-16 21:52:00,7.6,2.7,30.19,NNW,338,0.0,2.0,80,0.00,,,0.00,0,Wunderground v.1.15,2013-02-17 02:52:00,
2013-02-16 21:55:00,7.6,2.4,30.19,NNW,337,0.0,2.0,79,0.00,,,0.00,0,Wunderground v.1.15,2013-02-17 02:55:00,
2013-02-16 21:57:00,7.6,2.4,30.19,NNW,337,0.0,2.0,79,0.00,,,0.00,0,Wunderground v.1.15,2013-02-17 02:57:00,
2013-02-16 21:58:00,7.6,2.4,30.19,NNW,337,0.0,2.0,79,0.00,,,0.00,0,Wunderground v.1.15,2013-02-17 02:58:00,
2013-02-16 22:02:00,7.5,2.3,30.19,NNW,337,0.0,2.0,79,0.00,,,0.00,0,Wunderground v.1.15,2013-02-17 03:02:00,
2013-02-16 22:04:00,7.4,2.3,30.19,NNW,337,0.0,2.0,79,0.00,,,0.00,0,Wunderground v.1.15,2013-02-17 03:04:00,
2013-02-16 22:08:00,7.2,2.1,30.19,NNW,337,0.0,2.0,79,0.00,,,0.00,0,Wunderground v.1.15,2013-02-17 03:08:00,
2013-02-16 22:09:00,7.2,2.1,30.19,NNW,337,0.0,2.0,79,0.00,,,0.00,0,Wunderground v.1.15,2013-02-17 03:09:00,
2013-02-16 22:12:00,7.1,2.0,30.19,NNW,337,0.0,2.0,79,0.00,,,0.00,0,Wunderground v.1.15,2013-02-17 03:12:00,
2013-02-16 22:15:00,6.9,1.8,30.19,NNW,337,0.0,2.0,79,0.00,,,0.00,0,Wunderground v.1.15,2013-02-17 03:15:00,
2013-02-16 22:16:00,6.8,1.7,30.19,NNW,337,0.0,2.0,79,0.00,,,0.00,0,Wunderground v.1.15,2013-02-17 03:16:00,
2013-02-16 22:20:00,6.7,1.6,30.18,NNW,337,0.0,2.0,79,0.00,,,0.00,0,Wunderground v.1.15,2013-02-17 03:20:00,
2013-02-16 22:22:00,6.7,1.6,30.18,NNW,337,0.0,2.0,79,0.00,,,0.00,0,Wunderground v.1.15,2013-02-17 03:22:00,
2013-02-16 22:24:00,6.6,1.5,30.18,NNW,337,0.0,2.0,79,0.00,,,0.00,0,Wunderground v.1.15,2013-02-17 03:24:00,
2013-02-16 22:25:00,6.6,1.5,30.18,NNW,337,0.0,2.0,79,0.00,,,0.00,0,Wunderground v.1.15,2013-02-17 03:25:00,
2013-02-16 22:31:00,6.8,1.7,30.18,NNW,336,0.0,2.0,79,0.00,,,0.00,0,Wunderground v.1.15,2013-02-17 03:31:00,
2013-02-16 22:32:00,6.8,1.7,30.18,NNW,336,0.0,2.0,79,0.00,,,0.00,0,Wunderground v.1.15,2013-02-17 03:32:00,
2013-02-16 22:33:00,6.8,1.7,30.18,NNW,336,0.0,2.0,79,0.00,,,0.00,0,Wunderground v.1.15,2013-02-17 03:33:00,
2013-02-16 22:34:00,6.9,1.8,30.18,NNW,336,0.0,2.0,79,0.00,,,0.00,0,Wunderground v.1.15,2013-02-17 03:34:00,
2013-02-16 22:38:00,7.1,2.0,30.18,NNW,336,0.0,2.0,79,0.00,,,0.00,0,Wunderground v.1.15,2013-02-17 03:38:00,
2013-02-16 22:39:00,7.2,2.1,30.18,NNW,336,0.0,2.0,79,0.00,,,0.00,0,Wunderground v.1.15,2013-02-17 03:39:00,
2013-02-16 22:42:00,7.3,2.2,30.18,NNW,336,0.0,2.0,79,0.00,,,0.00,0,Wunderground v.1.15,2013-02-17 03:42:00,
2013-02-16 22:43:00,7.3,2.2,30.18,NNW,336,0.0,2.0,79,0.00,,,0.00,0,Wunderground v.1.15,2013-02-17 03:43:00,
2013-02-16 22:48:00,7.4,2.0,30.18,NNW,336,0.0,2.0,78,0.00,,,0.00,0,Wunderground v.1.15,2013-02-17 03:48:00,
2013-02-16 22:49:00,7.4,2.0,30.18,NNW,336,0.0,2.0,78,0.00,,,0.00,0,Wunderground v.1.15,2013-02-17 03:49:00,
2013-02-16 22:50:00,7.4,2.0,30.18,NNW,336,0.0,2.0,78,0.00,,,0.00,0,Wunderground v.1.15,2013-02-17 03:50:00,
2013-02-16 22:55:00,7.3,1.9,30.18,NNW,336,0.0,2.0,78,0.00,,,0.00,0,Wunderground v.1.15,2013-02-17 03:55:00,
2013-02-16 22:57:00,7.2,1.8,30.18,NNW,336,0.0,2.0,78,0.00,,,0.00,0,Wunderground v.1.15,2013-02-17 03:57:00,
2013-02-16 22:58:00,7.2,1.8,30.18,NNW,336,0.0,2.0,78,0.00,,,0.00,0,Wunderground v.1.15,2013-02-17 03:58:00,
2013-02-16 22:59:00,7.2,1.8,30.19,NNW,336,0.0,2.0,78,0.00,,,0.00,0,Wunderground v.1.15,2013-02-17 03:59:00,
2013-02-16 23:01:00,7.2,1.8,30.19,NNW,336,0.0,2.0,78,0.00,,,0.00,0,Wunderground v.1.15,2013-02-17 04:01:00,
2013-02-16 23:04:00,7.2,1.8,30.19,NNW,336,0.0,2.0,78,0.00,,,0.00,0,Wunderground v.1.15,2013-02-17 04:04:00,
2013-02-16 23:05:00,7.2,1.8,30.19,NNW,336,0.0,2.0,78,0.00,,,0.00,0,Wunderground v.1.15,2013-02-17 04:05:00,
2013-02-16 23:07:00,7.2,1.8,30.19,NNW,336,0.0,2.0,78,0.00,,,0.00,0,Wunderground v.1.15,2013-02-17 04:07:00,
2013-02-16 23:08:00,7.3,1.9,30.19,NNW,336,0.0,2.0,78,0.00,,,0.00,0,Wunderground v.1.15,2013-02-17 04:08:00,
2013-02-16 23:11:00,7.3,1.9,30.19,NNW,336,0.0,2.0,78,0.00,,,0.00,0,Wunderground v.1.15,2013-02-17 04:11:00,
2013-02-16 23:14:00,7.3,1.9,30.19,NNW,336,0.0,2.0,78,0.00,,,0.00,0,Wunderground v.1.15,2013-02-17 04:14:00,
2013-02-16 23:18:00,7.4,2.0,30.19,NNW,336,0.0,2.0,78,0.00,,,0.00,0,Wunderground v.1.15,2013-02-17 04:18:00,
2013-02-16 23:19:00,7.4,2.0,30.19,NNW,336,0.0,2.0,78,0.00,,,0.00,0,Wunderground v.1.15,2013-02-17 04:19:00,
2013-02-16 23:20:00,7.4,2.0,30.19,NNW,336,0.0,2.0,78,0.00,,,0.00,0,Wunderground v.1.15,2013-02-17 04:20:00,
2013-02-16 23:24:00,7.4,2.0,30.19,NNW,336,0.0,2.0,78,0.00,,,0.00,0,Wunderground v.1.15,2013-02-17 04:24:00,
2013-02-16 23:25:00,7.4,2.0,30.19,NNW,336,0.0,2.0,78,0.00,,,0.00,0,Wunderground v.1.15,2013-02-17 04:25:00,
2013-02-16 23:26:00,7.4,2.3,30.19,NNW,336,0.0,2.0,79,0.00,,,0.00,0,Wunderground v.1.15,2013-02-17 04:26:00,
2013-02-16 23:30:00,7.3,2.2,30.19,NNW,336,0.0,2.0,79,0.00,,,0.00,0,Wunderground v.1.15,2013-02-17 04:30:00,
2013-02-16 23:31:00,7.3,2.2,30.19,NNW,336,0.0,2.0,79,0.00,,,0.00,0,Wunderground v.1.15,2013-02-17 04:31:00,
2013-02-16 23:33:00,7.3,2.2,30.19,NNW,336,0.0,2.0,79,0.00,,,0.00,0,Wunderground v.1.15,2013-02-17 04:33:00,
2013-02-16 23:38:00,7.2,1.8,30.19,NNW,336,0.0,2.0,78,0.00,,,0.00,0,Wunderground v.1.15,2013-02-17 04:38:00,
2013-02-16 23:39:00,7.2,1.8,30.19,NNW,336,1.0,2.0,78,0.00,,,0.00,0,Wunderground v.1.15,2013-02-17 04:39:00,
2013-02-16 23:40:00,7.2,1.8,30.19,NNW,336,1.0,1.0,78,0.00,,,0.00,0,Wunderground v.1.15,2013-02-17 04:40:00,
2013-02-16 23:43:00,7.1,1.7,30.19,NNW,336,1.0,2.0,78,0.00,,,0.00,0,Wunderground v.1.15,2013-02-17 04:43:00,
2013-02-16 23:44:00,7.1,1.7,30.19,NNW,336,1.0,2.0,78,0.00,,,0.00,0,Wunderground v.1.15,2013-02-17 04:44:00,
2013-02-16 23:45:00,7.1,1.7,30.19,NNW,336,1.0,2.0,78,0.00,,,0.00,0,Wunderground v.1.15,2013-02-17 04:45:00,
2013-02-16 23:46:00,7.0,1.6,30.19,NNW,336,1.0,2.0,78,0.00,,,0.00,0,Wunderground v.1.15,2013-02-17 04:46:00,
2013-02-16 23:49:00,7.0,1.6,30.19,NNW,336,0.0,2.0,78,0.00,,,0.00,0,Wunderground v.1.15,2013-02-17 04:49:00,
2013-02-16 23:53:00,6.9,1.5,30.19,NNW,336,0.0,2.0,78,0.00,,,0.00,0,Wunderground v.1.15,2013-02-17 04:53:00,
2013-02-16 23:54:00,7.0,1.6,30.19,NNW,336,0.0,2.0,78,0.00,,,0.00,0,Wunderground v.1.15,2013-02-17 04:54:00,
2013-02-16 23:57:00,7.0,1.6,30.19,NNW,336,0.0,2.0,78,0.00,,,0.00,0,Wunderground v.1.15,2013-02-17 04:57:00,
2013-02-16 23:58:00,6.9,1.5,30.19,NNW,336,0.0,2.0,78,0.00,,,0.00,0,Wunderground v.1.15,2013-02-17 04:58:00,